Wetterdaten: Sonntag, 21.05.2023
Datum Zeit Temp. Aussen Temp. o. S. Temp +5cm Feuchte Auss Luftdruck Regen Sonnenschein Regendauer Solar Windben Empfang
21.05.2023 00:00 14,3 C 13,3 C 10,0 C 83 % 1019,0 hPa 0,0 l/m 0 min 0 min 0 W/m 6,4 km/h (2 Bft) 97,87 %
21.05.2023 00:02 14,3 C 13,3 C 10,0 C 83 % 1018,9 hPa 0,0 l/m 0 min 0 min 0 W/m 6,4 km/h (2 Bft) 97,62 %
21.05.2023 00:04 14,3 C 13,3 C 10,0 C 83 % 1018,9 hPa 0,0 l/m 0 min 0 min 0 W/m 9,7 km/h (2 Bft) 97,87 %
21.05.2023 00:07 14,3 C 13,3 C 10,0 C 83 % 1018,8 hPa 0,0 l/m 0 min 0 min 0 W/m 12,9 km/h (3 Bft) 97,87 %
21.05.2023 00:08 14,3 C 13,3 C 10,0 C 83 % 1018,8 hPa 0,0 l/m 0 min 0 min 0 W/m 12,9 km/h (3 Bft) 97,67 %
21.05.2023 00:12 14,3 C 13,3 C 10,0 C 83 % 1018,9 hPa 0,0 l/m 0 min 0 min 0 W/m 6,4 km/h (2 Bft) 91,67 %
21.05.2023 00:14 14,3 C 13,3 C 10,0 C 83 % 1018,9 hPa 0,0 l/m 0 min 0 min 0 W/m 6,4 km/h (2 Bft) 97,87 %
21.05.2023 00:16 14,3 C 13,3 C 10,0 C 83 % 1018,9 hPa 0,0 l/m 0 min 0 min 0 W/m 9,7 km/h (2 Bft) 97,83 %
21.05.2023 00:18 14,3 C 13,3 C 10,0 C 83 % 1018,9 hPa 0,0 l/m 0 min 0 min 0 W/m 6,4 km/h (2 Bft) 97,87 %
21.05.2023 00:20 14,3 C 13,3 C 10,0 C 83 % 1018,8 hPa 0,0 l/m 0 min 0 min 0 W/m 6,4 km/h (2 Bft) 95,74 %
21.05.2023 00:22 14,3 C 13,3 C 10,0 C 83 % 1018,8 hPa 0,0 l/m 0 min 0 min 0 W/m 9,7 km/h (2 Bft) 97,87 %
21.05.2023 00:24 14,3 C 13,3 C 10,0 C 83 % 1018,8 hPa 0,0 l/m 0 min 0 min 0 W/m 6,4 km/h (2 Bft) 97,87 %
21.05.2023 00:26 14,3 C 13,3 C 10,0 C 83 % 1018,8 hPa 0,0 l/m 0 min 0 min 0 W/m 6,4 km/h (2 Bft) 93,62 %
21.05.2023 00:28 14,3 C 13,3 C 10,0 C 83 % 1018,7 hPa 0,0 l/m 0 min 0 min 0 W/m 12,9 km/h (3 Bft) 97,87 %
21.05.2023 00:30 14,3 C 13,3 C 10,0 C 83 % 1018,7 hPa 0,0 l/m 0 min 0 min 0 W/m 9,7 km/h (2 Bft) 97,83 %
21.05.2023 00:32 14,3 C 13,3 C 10,0 C 83 % 1018,7 hPa 0,0 l/m 0 min 0 min 0 W/m 6,4 km/h (2 Bft) 95,74 %
21.05.2023 00:34 14,3 C 13,3 C 10,0 C 83 % 1018,6 hPa 0,0 l/m 0 min 0 min 0 W/m 16,1 km/h (3 Bft) 97,87 %
21.05.2023 00:36 14,3 C 13,3 C 10,0 C 84 % 1018,6 hPa 0,0 l/m 0 min 0 min 0 W/m 9,7 km/h (2 Bft) 95,74 %
21.05.2023 00:38 14,3 C 13,3 C 10,0 C 84 % 1018,5 hPa 0,0 l/m 0 min 0 min 0 W/m 9,7 km/h (2 Bft) 97,87 %
21.05.2023 00:40 14,3 C 13,3 C 10,0 C 84 % 1018,6 hPa 0,0 l/m 0 min 0 min 0 W/m 9,7 km/h (2 Bft) 100,00 %
21.05.2023 00:42 14,3 C 13,3 C 10,0 C 84 % 1018,6 hPa 0,0 l/m 0 min 0 min 0 W/m 9,7 km/h (2 Bft) 95,74 %
21.05.2023 00:44 14,3 C 13,3 C 10,0 C 84 % 1018,5 hPa 0,0 l/m 0 min 0 min 0 W/m 6,4 km/h (2 Bft) 97,83 %
21.05.2023 00:46 14,3 C 13,3 C 10,0 C 84 % 1018,6 hPa 0,0 l/m 0 min 0 min 0 W/m 9,7 km/h (2 Bft) 97,87 %
21.05.2023 00:48 14,3 C 13,3 C 10,0 C 84 % 1018,5 hPa 0,0 l/m 0 min 0 min 0 W/m 9,7 km/h (2 Bft) 97,87 %
21.05.2023 00:50 14,3 C 13,3 C 10,0 C 84 % 1018,5 hPa 0,0 l/m 0 min 0 min 0 W/m 16,1 km/h (3 Bft) 97,87 %
21.05.2023 00:52 14,3 C 13,3 C 10,0 C 84 % 1018,5 hPa 0,0 l/m 0 min 0 min 0 W/m 6,4 km/h (2 Bft) 97,87 %
21.05.2023 00:54 14,3 C 13,3 C 10,0 C 84 % 1018,5 hPa 0,0 l/m 0 min 0 min 0 W/m 9,7 km/h (2 Bft) 97,96 %
21.05.2023 00:56 14,2 C 13,3 C 10,0 C 84 % 1018,5 hPa 0,0 l/m 0 min 0 min 0 W/m 12,9 km/h (3 Bft) 97,83 %
21.05.2023 00:58 14,2 C 13,3 C 10,0 C 84 % 1018,4 hPa 0,0 l/m 0 min 0 min 0 W/m 6,4 km/h (2 Bft) 97,87 %
21.05.2023 01:00 14,2 C 13,3 C 10,0 C 84 % 1018,4 hPa 0,0 l/m 0 min 0 min 0 W/m 6,4 km/h (2 Bft) 97,87 %
21.05.2023 01:02 14,2 C 13,3 C 10,0 C 84 % 1018,4 hPa 0,0 l/m 0 min 0 min 0 W/m 6,4 km/h (2 Bft) 97,87 %
21.05.2023 01:04 14,2 C 13,3 C 10,0 C 84 % 1018,4 hPa 0,0 l/m 0 min 0 min 0 W/m 6,4 km/h (2 Bft) 97,87 %
21.05.2023 01:05 14,2 C 13,3 C 9,4 C 84 % 1018,5 hPa 0,0 l/m 0 min 0 min 0 W/m 6,4 km/h (2 Bft) 100,00 %
21.05.2023 01:08 14,1 C 13,3 C 9,4 C 84 % 1018,5 hPa 0,0 l/m 0 min 0 min 0 W/m 3,2 km/h (1 Bft) 100,00 %
21.05.2023 01:10 14,1 C 13,3 C 9,4 C 84 % 1018,4 hPa 0,0 l/m 0 min 0 min 0 W/m 3,2 km/h (1 Bft) 97,92 %
21.05.2023 01:12 14,1 C 12,8 C 9,4 C 84 % 1018,4 hPa 0,0 l/m 0 min 0 min 0 W/m 6,4 km/h (2 Bft) 88,89 %
21.05.2023 01:14 14,1 C 12,8 C 9,4 C 84 % 1018,4 hPa 0,0 l/m 0 min 0 min 0 W/m 6,4 km/h (2 Bft) 96,55 %
21.05.2023 01:16 14,1 C 12,8 C 9,4 C 84 % 1018,4 hPa 0,0 l/m 0 min 0 min 0 W/m 9,7 km/h (2 Bft) 100,00 %
21.05.2023 01:18 14,1 C 12,8 C 9,4 C 84 % 1018,3 hPa 0,0 l/m 0 min 0 min 0 W/m 6,4 km/h (2 Bft) 100,00 %
21.05.2023 01:20 14,0 C 12,8 C 9,4 C 85 % 1018,3 hPa 0,0 l/m 0 min 0 min 0 W/m 6,4 km/h (2 Bft) 97,14 %
21.05.2023 01:22 14,0 C 12,8 C 9,4 C 85 % 1018,3 hPa 0,0 l/m 0 min 0 min 0 W/m 6,4 km/h (2 Bft) 98,28 %
21.05.2023 01:24 14,0 C 12,8 C 9,4 C 85 % 1018,3 hPa 0,0 l/m 0 min 0 min 0 W/m 9,7 km/h (2 Bft) 100,00 %
21.05.2023 01:26 13,9 C 12,8 C 9,4 C 85 % 1018,3 hPa 0,0 l/m 0 min 0 min 0 W/m 3,2 km/h (1 Bft) 100,00 %
21.05.2023 01:28 13,9 C 12,8 C 9,4 C 85 % 1018,3 hPa 0,0 l/m 0 min 0 min 0 W/m 6,4 km/h (2 Bft) 97,87 %
21.05.2023 01:30 13,9 C 12,8 C 9,4 C 85 % 1018,3 hPa 0,0 l/m 0 min 0 min 0 W/m 3,2 km/h (1 Bft) 85,11 %
21.05.2023 01:32 13,9 C 12,8 C 9,4 C 85 % 1018,2 hPa 0,0 l/m 0 min 0 min 0 W/m 3,2 km/h (1 Bft) 66,67 %
21.05.2023 01:34 13,9 C 12,8 C 9,4 C 85 % 1018,1 hPa 0,0 l/m 0 min 0 min 0 W/m 3,2 km/h (1 Bft) 95,74 %
21.05.2023 01:36 13,9 C 12,8 C 9,4 C 85 % 1018,1 hPa 0,0 l/m 0 min 0 min 0 W/m 3,2 km/h (1 Bft) 94,29 %
21.05.2023 01:38 13,8 C 12,8 C 9,4 C 85 % 1018,0 hPa 0,0 l/m 0 min 0 min 0 W/m 3,2 km/h (1 Bft) 98,11 %
21.05.2023 01:40 13,8 C 12,8 C 9,4 C 85 % 1018,0 hPa 0,0 l/m 0 min 0 min 0 W/m 6,4 km/h (2 Bft) 97,87 %
21.05.2023 01:42 13,8 C 12,8 C 9,4 C 85 % 1018,0 hPa 0,0 l/m 0 min 0 min 0 W/m 3,2 km/h (1 Bft) 93,62 %
21.05.2023 01:44 13,8 C 12,8 C 9,4 C 85 % 1017,9 hPa 0,0 l/m 0 min 0 min 0 W/m 3,2 km/h (1 Bft) 95,74 %
21.05.2023 01:46 13,7 C 12,8 C 9,4 C 85 % 1017,9 hPa 0,0 l/m 0 min 0 min 0 W/m 3,2 km/h (1 Bft) 97,83 %
21.05.2023 01:48 13,7 C 12,8 C 9,4 C 85 % 1017,9 hPa 0,0 l/m 0 min 0 min 0 W/m 6,4 km/h (2 Bft) 95,83 %
21.05.2023 01:50 13,7 C 12,8 C 9,4 C 86 % 1017,9 hPa 0,0 l/m 0 min 0 min 0 W/m 3,2 km/h (1 Bft) 97,87 %
21.05.2023 01:52 13,7 C 12,8 C 9,4 C 86 % 1017,9 hPa 0,0 l/m 0 min 0 min 0 W/m 3,2 km/h (1 Bft) 97,87 %
21.05.2023 01:54 13,6 C 12,8 C 9,4 C 86 % 1017,8 hPa 0,0 l/m 0 min 0 min 0 W/m 6,4 km/h (2 Bft) 93,62 %
21.05.2023 01:56 13,6 C 12,8 C 8,9 C 86 % 1017,8 hPa 0,0 l/m 0 min 0 min 0 W/m 3,2 km/h (1 Bft) 97,87 %
21.05.2023 01:58 13,6 C 12,2 C 8,9 C 86 % 1017,8 hPa 0,0 l/m 0 min 0 min 0 W/m 6,4 km/h (2 Bft) 97,83 %
21.05.2023 02:00 13,6 C 12,2 C 8,9 C 86 % 1017,8 hPa 0,0 l/m 0 min 0 min 0 W/m 3,2 km/h (1 Bft) 93,62 %
21.05.2023 02:02 13,6 C 12,2 C 8,9 C 86 % 1017,8 hPa 0,0 l/m 0 min 0 min 0 W/m 6,4 km/h (2 Bft) 97,87 %
21.05.2023 02:04 13,5 C 12,2 C 8,9 C 86 % 1017,8 hPa 0,0 l/m 0 min 0 min 0 W/m 3,2 km/h (1 Bft) 95,74 %
21.05.2023 02:06 13,5 C 12,2 C 8,9 C 86 % 1017,8 hPa 0,0 l/m 0 min 0 min 0 W/m 3,2 km/h (1 Bft) 95,00 %
21.05.2023 02:08 13,5 C 12,2 C 8,9 C 86 % 1017,8 hPa 0,0 l/m 0 min 0 min 0 W/m 9,7 km/h (2 Bft) 97,14 %
21.05.2023 02:10 13,4 C 12,2 C 8,9 C 86 % 1017,8 hPa 0,0 l/m 0 min 0 min 0 W/m 6,4 km/h (2 Bft) 93,48 %
21.05.2023 02:12 13,4 C 12,2 C 8,9 C 87 % 1017,8 hPa 0,0 l/m 0 min 0 min 0 W/m 6,4 km/h (2 Bft) 95,74 %
21.05.2023 02:14 13,4 C 12,2 C 8,9 C 87 % 1017,8 hPa 0,0 l/m 0 min 0 min 0 W/m 9,7 km/h (2 Bft) 97,87 %
21.05.2023 02:16 13,4 C 12,2 C 8,9 C 87 % 1017,7 hPa 0,0 l/m 0 min 0 min 0 W/m 16,1 km/h (3 Bft) 97,92 %
21.05.2023 02:18 13,4 C 12,2 C 8,9 C 87 % 1017,7 hPa 0,0 l/m 0 min 0 min 0 W/m 3,2 km/h (1 Bft) 98,00 %
21.05.2023 02:20 13,4 C 12,2 C 8,9 C 87 % 1017,7 hPa 0,0 l/m 0 min 0 min 0 W/m 6,4 km/h (2 Bft) 95,74 %
21.05.2023 02:22 13,4 C 12,2 C 8,9 C 87 % 1017,7 hPa 0,0 l/m 0 min 0 min 0 W/m 3,2 km/h (1 Bft) 100,00 %
21.05.2023 02:24 13,4 C 12,2 C 8,9 C 87 % 1017,7 hPa 0,0 l/m 0 min 0 min 0 W/m 3,2 km/h (1 Bft) 97,87 %
21.05.2023 02:26 13,4 C 12,2 C 8,9 C 87 % 1017,7 hPa 0,0 l/m 0 min 0 min 0 W/m 3,2 km/h (1 Bft) 100,00 %
21.05.2023 02:28 13,4 C 12,2 C 8,9 C 87 % 1017,7 hPa 0,0 l/m 0 min 0 min 0 W/m 3,2 km/h (1 Bft) 100,00 %
21.05.2023 02:30 13,4 C 12,2 C 8,9 C 87 % 1017,6 hPa 0,0 l/m 0 min 0 min 0 W/m 0,0 km/h (0 Bft) 95,74 %
21.05.2023 02:32 13,4 C 12,2 C 8,9 C 87 % 1017,6 hPa 0,0 l/m 0 min 0 min 0 W/m 3,2 km/h (1 Bft) 95,74 %
21.05.2023 02:34 13,4 C 12,2 C 8,9 C 87 % 1017,6 hPa 0,0 l/m 0 min 0 min 0 W/m 3,2 km/h (1 Bft) 97,87 %
21.05.2023 02:36 13,3 C 12,2 C 8,9 C 87 % 1017,6 hPa 0,0 l/m 0 min 0 min 0 W/m 0,0 km/h (0 Bft) 93,48 %
21.05.2023 02:38 13,3 C 12,2 C 8,9 C 87 % 1017,6 hPa 0,0 l/m 0 min 0 min 0 W/m 3,2 km/h (1 Bft) 97,92 %
21.05.2023 02:40 13,3 C 12,2 C 8,9 C 87 % 1017,6 hPa 0,0 l/m 0 min 0 min 0 W/m 0,0 km/h (0 Bft) 95,74 %
21.05.2023 02:42 13,3 C 12,2 C 8,9 C 87 % 1017,6 hPa 0,0 l/m 0 min 0 min 0 W/m 3,2 km/h (1 Bft) 91,49 %
21.05.2023 02:44 13,3 C 12,2 C 8,9 C 87 % 1017,6 hPa 0,0 l/m 0 min 0 min 0 W/m 3,2 km/h (1 Bft) 97,87 %
21.05.2023 02:46 13,3 C 12,2 C 8,9 C 87 % 1017,5 hPa 0,0 l/m 0 min 0 min 0 W/m 3,2 km/h (1 Bft) 97,87 %
21.05.2023 02:48 13,3 C 12,2 C 8,9 C 87 % 1017,6 hPa 0,0 l/m 0 min 0 min 0 W/m 3,2 km/h (1 Bft) 95,65 %
21.05.2023 02:50 13,3 C 12,8 C 8,9 C 88 % 1017,5 hPa 0,0 l/m 0 min 0 min 0 W/m 3,2 km/h (1 Bft) 94,74 %
21.05.2023 02:52 13,3 C 12,8 C 8,9 C 88 % 1017,5 hPa 0,0 l/m 0 min 0 min 0 W/m 6,4 km/h (2 Bft) 97,87 %
21.05.2023 02:54 13,3 C 12,8 C 8,9 C 88 % 1017,5 hPa 0,0 l/m 0 min 0 min 0 W/m 3,2 km/h (1 Bft) 96,23 %
21.05.2023 02:56 13,3 C 12,8 C 8,9 C 88 % 1017,5 hPa 0,0 l/m 0 min 0 min 0 W/m 3,2 km/h (1 Bft) 97,87 %
21.05.2023 02:58 13,3 C 12,8 C 8,9 C 88 % 1017,5 hPa 0,0 l/m 0 min 0 min 0 W/m 6,4 km/h (2 Bft) 97,87 %
21.05.2023 03:00 13,3 C 12,8 C 8,9 C 88 % 1017,5 hPa 0,0 l/m 0 min 0 min 0 W/m 3,2 km/h (1 Bft) 97,87 %
21.05.2023 03:02 13,3 C 12,8 C 8,9 C 88 % 1017,5 hPa 0,0 l/m 0 min 0 min 0 W/m 6,4 km/h (2 Bft) 95,65 %
21.05.2023 03:04 13,3 C 12,8 C 8,9 C 88 % 1017,6 hPa 0,0 l/m 0 min 0 min 0 W/m 3,2 km/h (1 Bft) 97,67 %
21.05.2023 03:06 13,3 C 12,2 C 8,9 C 88 % 1017,6 hPa 0,0 l/m 0 min 0 min 0 W/m 3,2 km/h (1 Bft) 95,74 %
21.05.2023 03:08 13,3 C 12,2 C 8,9 C 88 % 1017,6 hPa 0,0 l/m 0 min 0 min 0 W/m 3,2 km/h (1 Bft) 97,87 %
21.05.2023 03:10 13,3 C 12,2 C 8,9 C 88 % 1017,6 hPa 0,0 l/m 0 min 0 min 0 W/m 3,2 km/h (1 Bft) 97,87 %
21.05.2023 03:12 13,3 C 12,2 C 8,9 C 88 % 1017,6 hPa 0,0 l/m 0 min 0 min 0 W/m 3,2 km/h (1 Bft) 97,87 %
21.05.2023 03:14 13,3 C 12,2 C 8,9 C 88 % 1017,5 hPa 0,0 l/m 0 min 0 min 0 W/m 3,2 km/h (1 Bft) 95,65 %
21.05.2023 03:16 13,3 C 12,8 C 8,9 C 88 % 1017,5 hPa 0,0 l/m 0 min 0 min 0 W/m 6,4 km/h (2 Bft) 96,36 %
21.05.2023 03:18 13,3 C 12,8 C 8,9 C 88 % 1017,5 hPa 0,0 l/m 0 min 0 min 0 W/m 3,2 km/h (1 Bft) 95,74 %
21.05.2023 03:20 13,3 C 12,2 C 8,9 C 88 % 1017,5 hPa 0,0 l/m 0 min 0 min 0 W/m 3,2 km/h (1 Bft) 93,62 %
21.05.2023 03:22 13,3 C 12,2 C 8,9 C 88 % 1017,5 hPa 0,0 l/m 0 min 0 min 0 W/m 6,4 km/h (2 Bft) 97,87 %
21.05.2023 03:24 13,3 C 12,2 C 8,9 C 88 % 1017,5 hPa 0,0 l/m 0 min 0 min 0 W/m 3,2 km/h (1 Bft) 97,87 %
21.05.2023 03:26 13,3 C 12,2 C 8,9 C 88 % 1017,4 hPa 0,0 l/m 0 min 0 min 0 W/m 3,2 km/h (1 Bft) 97,83 %
21.05.2023 03:28 13,3 C 12,2 C 8,9 C 88 % 1017,3 hPa 0,0 l/m 0 min 0 min 0 W/m 0,0 km/h (0 Bft) 97,87 %
21.05.2023 03:30 13,3 C 12,2 C 8,9 C 88 % 1017,4 hPa 0,0 l/m 0 min 0 min 0 W/m 3,2 km/h (1 Bft) 97,87 %
21.05.2023 03:32 13,3 C 12,2 C 8,9 C 88 % 1017,3 hPa 0,0 l/m 0 min 0 min 0 W/m 6,4 km/h (2 Bft) 97,87 %
21.05.2023 03:34 13,3 C 12,2 C 8,9 C 88 % 1017,3 hPa 0,0 l/m 0 min 0 min 0 W/m 6,4 km/h (2 Bft) 95,74 %
21.05.2023 03:36 13,3 C 12,2 C 8,9 C 88 % 1017,3 hPa 0,0 l/m 0 min 0 min 0 W/m 3,2 km/h (1 Bft) 95,74 %
21.05.2023 03:38 13,3 C 12,2 C 8,9 C 88 % 1017,3 hPa 0,0 l/m 0 min 0 min 0 W/m 3,2 km/h (1 Bft) 97,83 %
21.05.2023 03:40 13,3 C 12,2 C 8,9 C 88 % 1017,3 hPa 0,0 l/m 0 min 0 min 0 W/m 3,2 km/h (1 Bft) 97,87 %
21.05.2023 03:42 13,3 C 12,2 C 8,9 C 88 % 1017,3 hPa 0,0 l/m 0 min 0 min 0 W/m 3,2 km/h (1 Bft) 95,74 %
21.05.2023 03:44 13,2 C 12,2 C 8,9 C 88 % 1017,3 hPa 0,0 l/m 0 min 0 min 0 W/m 3,2 km/h (1 Bft) 95,74 %
21.05.2023 03:46 13,2 C 12,2 C 8,9 C 88 % 1017,3 hPa 0,0 l/m 0 min 0 min 0 W/m 3,2 km/h (1 Bft) 93,62 %
21.05.2023 03:48 13,2 C 12,2 C 8,9 C 88 % 1017,3 hPa 0,0 l/m 0 min 0 min 0 W/m 3,2 km/h (1 Bft) 100,00 %
21.05.2023 03:50 13,2 C 12,2 C 8,9 C 88 % 1017,2 hPa 0,0 l/m 0 min 0 min 0 W/m 3,2 km/h (1 Bft) 97,87 %
21.05.2023 03:52 13,2 C 12,2 C 8,9 C 88 % 1017,2 hPa 0,0 l/m 0 min 0 min 0 W/m 3,2 km/h (1 Bft) 100,00 %
21.05.2023 03:54 13,2 C 12,2 C 8,9 C 88 % 1017,3 hPa 0,0 l/m 0 min 0 min 0 W/m 3,2 km/h (1 Bft) 97,87 %
21.05.2023 03:56 13,2 C 12,2 C 8,9 C 88 % 1017,2 hPa 0,0 l/m 0 min 0 min 0 W/m 6,4 km/h (2 Bft) 97,22 %
21.05.2023 03:58 13,2 C 12,2 C 8,9 C 88 % 1017,2 hPa 0,0 l/m 0 min 0 min 0 W/m 6,4 km/h (2 Bft) 89,80 %
21.05.2023 04:00 13,2 C 12,2 C 8,9 C 88 % 1017,2 hPa 0,0 l/m 0 min 0 min 0 W/m 3,2 km/h (1 Bft) 63,83 %
21.05.2023 04:02 13,2 C 12,2 C 8,9 C 88 % 1017,2 hPa 0,0 l/m 0 min 0 min 0 W/m 3,2 km/h (1 Bft) 95,74 %
21.05.2023 04:04 13,2 C 12,2 C 8,9 C 88 % 1017,2 hPa 0,0 l/m 0 min 0 min 0 W/m 3,2 km/h (1 Bft) 93,88 %
21.05.2023 04:06 13,2 C 12,2 C 8,9 C 88 % 1017,2 hPa 0,0 l/m 0 min 0 min 0 W/m 3,2 km/h (1 Bft) 98,08 %
21.05.2023 04:08 13,2 C 12,2 C 8,9 C 88 % 1017,2 hPa 0,0 l/m 0 min 0 min 0 W/m 3,2 km/h (1 Bft) 95,74 %
21.05.2023 04:10 13,2 C 12,2 C 8,9 C 88 % 1017,2 hPa 0,0 l/m 0 min 0 min 0 W/m 6,4 km/h (2 Bft) 95,74 %
21.05.2023 04:12 13,2 C 12,2 C 8,9 C 88 % 1017,2 hPa 0,0 l/m 0 min 0 min 0 W/m 3,2 km/h (1 Bft) 95,83 %
21.05.2023 04:14 13,2 C 12,2 C 8,9 C 88 % 1017,2 hPa 0,0 l/m 0 min 0 min 0 W/m 3,2 km/h (1 Bft) 93,62 %
21.05.2023 04:16 13,2 C 12,2 C 8,9 C 88 % 1017,2 hPa 0,0 l/m 0 min 0 min 0 W/m 3,2 km/h (1 Bft) 94,74 %
21.05.2023 04:18 13,2 C 12,2 C 8,9 C 88 % 1017,1 hPa 0,0 l/m 0 min 0 min 0 W/m 3,2 km/h (1 Bft) 97,87 %
21.05.2023 04:20 13,2 C 12,2 C 8,9 C 88 % 1017,2 hPa 0,0 l/m 0 min 0 min 0 W/m 6,4 km/h (2 Bft) 93,48 %
21.05.2023 04:22 13,2 C 12,2 C 8,9 C 88 % 1017,2 hPa 0,0 l/m 0 min 0 min 0 W/m 3,2 km/h (1 Bft) 93,62 %
21.05.2023 04:24 13,2 C 12,2 C 8,9 C 88 % 1017,2 hPa 0,0 l/m 0 min 0 min 0 W/m 0,0 km/h (0 Bft) 95,74 %
21.05.2023 04:26 13,2 C 12,2 C 8,9 C 88 % 1017,2 hPa 0,0 l/m 0 min 0 min 0 W/m 3,2 km/h (1 Bft) 93,62 %
21.05.2023 04:28 13,2 C 12,2 C 8,9 C 88 % 1017,2 hPa 0,0 l/m 0 min 0 min 0 W/m 3,2 km/h (1 Bft) 95,74 %
21.05.2023 04:30 13,2 C 12,2 C 8,9 C 88 % 1017,2 hPa 0,0 l/m 0 min 0 min 0 W/m 0,0 km/h (0 Bft) 93,62 %
21.05.2023 04:32 13,2 C 12,2 C 8,9 C 88 % 1017,1 hPa 0,0 l/m 0 min 0 min 0 W/m 0,0 km/h (0 Bft) 95,83 %
21.05.2023 04:34 13,1 C 12,2 C 8,9 C 88 % 1017,1 hPa 0,0 l/m 0 min 0 min 0 W/m 0,0 km/h (0 Bft) 95,74 %
21.05.2023 04:36 13,2 C 12,2 C 8,9 C 88 % 1017,1 hPa 0,0 l/m 0 min 0 min 0 W/m 3,2 km/h (1 Bft) 95,74 %
21.05.2023 04:38 13,1 C 12,2 C 8,9 C 88 % 1017,2 hPa 0,0 l/m 0 min 0 min 0 W/m 3,2 km/h (1 Bft) 95,74 %
21.05.2023 04:40 13,1 C 12,2 C 8,9 C 88 % 1017,1 hPa 0,0 l/m 0 min 0 min 0 W/m 0,0 km/h (0 Bft) 95,74 %
21.05.2023 04:42 13,1 C 12,2 C 8,9 C 88 % 1017,1 hPa 0,0 l/m 0 min 0 min 0 W/m 0,0 km/h (0 Bft) 97,87 %
21.05.2023 04:44 13,1 C 12,2 C 8,9 C 88 % 1017,1 hPa 0,0 l/m 0 min 0 min 0 W/m 3,2 km/h (1 Bft) 100,00 %
21.05.2023 04:46 13,1 C 12,2 C 8,9 C 88 % 1017,1 hPa 0,0 l/m 0 min 0 min 0 W/m 3,2 km/h (1 Bft) 100,00 %
21.05.2023 04:48 13,1 C 12,2 C 8,9 C 88 % 1017,1 hPa 0,0 l/m 0 min 0 min 0 W/m 3,2 km/h (1 Bft) 97,87 %
21.05.2023 04:50 13,1 C 12,2 C 8,9 C 88 % 1017,0 hPa 0,0 l/m 0 min 0 min 0 W/m 3,2 km/h (1 Bft) 100,00 %
21.05.2023 04:52 13,1 C 12,2 C 8,9 C 88 % 1017,0 hPa 0,0 l/m 0 min 0 min 0 W/m 3,2 km/h (1 Bft) 97,87 %
21.05.2023 04:54 13,1 C 12,2 C 8,9 C 88 % 1017,0 hPa 0,0 l/m 0 min 0 min 0 W/m 3,2 km/h (1 Bft) 100,00 %
21.05.2023 04:56 13,1 C 12,2 C 8,9 C 88 % 1017,0 hPa 0,0 l/m 0 min 0 min 0 W/m 6,4 km/h (2 Bft) 100,00 %
21.05.2023 04:58 13,1 C 12,2 C 8,9 C 88 % 1017,0 hPa 0,0 l/m 0 min 0 min 0 W/m 3,2 km/h (1 Bft) 100,00 %
21.05.2023 05:00 13,1 C 12,2 C 8,9 C 88 % 1017,0 hPa 0,0 l/m 0 min 0 min 0 W/m 12,9 km/h (3 Bft) 95,74 %
21.05.2023 05:02 13,0 C 12,2 C 8,9 C 89 % 1016,9 hPa 0,0 l/m 0 min 0 min 0 W/m 0,0 km/h (0 Bft) 100,00 %
21.05.2023 05:04 13,0 C 12,2 C 8,9 C 89 % 1017,0 hPa 0,0 l/m 0 min 0 min 0 W/m 3,2 km/h (1 Bft) 100,00 %
21.05.2023 05:06 13,0 C 12,2 C 8,9 C 89 % 1017,0 hPa 0,0 l/m 0 min 0 min 0 W/m 3,2 km/h (1 Bft) 98,31 %
21.05.2023 05:08 13,0 C 12,2 C 8,9 C 89 % 1016,9 hPa 0,0 l/m 0 min 0 min 0 W/m 3,2 km/h (1 Bft) 100,00 %
21.05.2023 05:10 12,9 C 12,2 C 8,9 C 89 % 1016,9 hPa 0,0 l/m 0 min 0 min 0 W/m 6,4 km/h (2 Bft) 100,00 %
21.05.2023 05:12 12,9 C 12,2 C 8,9 C 89 % 1016,9 hPa 0,0 l/m 0 min 0 min 0 W/m 6,4 km/h (2 Bft) 100,00 %
21.05.2023 05:14 12,9 C 12,2 C 8,9 C 89 % 1016,9 hPa 0,0 l/m 0 min 0 min 0 W/m 6,4 km/h (2 Bft) 100,00 %
21.05.2023 05:16 12,9 C 12,2 C 8,9 C 89 % 1017,0 hPa 0,0 l/m 0 min 0 min 0 W/m 3,2 km/h (1 Bft) 100,00 %
21.05.2023 05:18 12,9 C 12,2 C 8,9 C 89 % 1016,9 hPa 0,0 l/m 0 min 0 min 0 W/m 6,4 km/h (2 Bft) 100,00 %
21.05.2023 05:20 12,9 C 12,2 C 8,9 C 89 % 1016,9 hPa 0,0 l/m 0 min 0 min 0 W/m 3,2 km/h (1 Bft) 100,00 %
21.05.2023 05:22 12,9 C 12,2 C 8,9 C 89 % 1016,8 hPa 0,0 l/m 0 min 0 min 0 W/m 3,2 km/h (1 Bft) 100,00 %
21.05.2023 05:24 12,9 C 12,2 C 8,9 C 89 % 1016,8 hPa 0,0 l/m 0 min 0 min 0 W/m 3,2 km/h (1 Bft) 100,00 %
21.05.2023 05:26 12,8 C 12,2 C 8,9 C 89 % 1016,8 hPa 0,0 l/m 0 min 0 min 0 W/m 6,4 km/h (2 Bft) 100,00 %
21.05.2023 05:28 12,8 C 12,2 C 8,9 C 89 % 1016,8 hPa 0,0 l/m 0 min 0 min 0 W/m 6,4 km/h (2 Bft) 97,87 %
21.05.2023 05:30 12,8 C 12,2 C 8,9 C 89 % 1016,8 hPa 0,0 l/m 0 min 0 min 0 W/m 6,4 km/h (2 Bft) 97,87 %
21.05.2023 05:32 12,8 C 12,2 C 8,9 C 89 % 1016,7 hPa 0,0 l/m 0 min 0 min 0 W/m 9,7 km/h (2 Bft) 97,87 %
21.05.2023 05:34 12,8 C 12,2 C 8,9 C 89 % 1016,7 hPa 0,0 l/m 0 min 0 min 0 W/m 9,7 km/h (2 Bft) 100,00 %
21.05.2023 05:36 12,8 C 12,2 C 8,9 C 89 % 1016,8 hPa 0,0 l/m 0 min 0 min 0 W/m 6,4 km/h (2 Bft) 100,00 %
21.05.2023 05:38 12,8 C 12,2 C 8,9 C 89 % 1016,8 hPa 0,0 l/m 0 min 0 min 0 W/m 3,2 km/h (1 Bft) 100,00 %
21.05.2023 05:40 12,8 C 12,2 C 8,9 C 89 % 1016,8 hPa 0,0 l/m 0 min 0 min 0 W/m 3,2 km/h (1 Bft) 100,00 %
21.05.2023 05:42 12,8 C 12,2 C 8,9 C 89 % 1016,8 hPa 0,0 l/m 0 min 0 min 0 W/m 3,2 km/h (1 Bft) 100,00 %
21.05.2023 05:44 12,8 C 12,2 C 8,9 C 89 % 1016,8 hPa 0,0 l/m 0 min 0 min 0 W/m 0,0 km/h (0 Bft) 100,00 %
21.05.2023 05:46 12,8 C 12,2 C 8,3 C 89 % 1016,8 hPa 0,0 l/m 0 min 0 min 0 W/m 0,0 km/h (0 Bft) 100,00 %
21.05.2023 05:48 12,8 C 11,7 C 8,3 C 89 % 1016,8 hPa 0,0 l/m 0 min 0 min 0 W/m 0,0 km/h (0 Bft) 100,00 %
21.05.2023 05:50 12,8 C 11,7 C 8,3 C 89 % 1016,8 hPa 0,0 l/m 0 min 0 min 4 W/m 0,0 km/h (0 Bft) 100,00 %
21.05.2023 05:52 12,8 C 11,7 C 8,3 C 89 % 1016,8 hPa 0,0 l/m 0 min 0 min 5 W/m 6,4 km/h (2 Bft) 100,00 %
21.05.2023 05:54 12,8 C 11,7 C 8,3 C 89 % 1016,9 hPa 0,0 l/m 0 min 0 min 5 W/m 3,2 km/h (1 Bft) 100,00 %
21.05.2023 05:56 12,8 C 11,7 C 8,3 C 89 % 1016,9 hPa 0,0 l/m 0 min 0 min 7 W/m 3,2 km/h (1 Bft) 97,87 %
21.05.2023 05:58 12,7 C 11,7 C 8,3 C 89 % 1016,9 hPa 0,0 l/m 0 min 0 min 7 W/m 0,0 km/h (0 Bft) 100,00 %
21.05.2023 06:00 12,7 C 11,7 C 8,3 C 90 % 1016,9 hPa 0,0 l/m 0 min 0 min 7 W/m 0,0 km/h (0 Bft) 97,87 %
21.05.2023 06:02 12,7 C 11,7 C 8,3 C 90 % 1016,9 hPa 0,0 l/m 0 min 0 min 9 W/m 3,2 km/h (1 Bft) 95,74 %
21.05.2023 06:04 12,7 C 11,7 C 8,3 C 90 % 1016,9 hPa 0,0 l/m 0 min 0 min 9 W/m 3,2 km/h (1 Bft) 95,65 %
21.05.2023 06:07 12,7 C 11,7 C 8,3 C 90 % 1016,9 hPa 0,0 l/m 0 min 0 min 11 W/m 3,2 km/h (1 Bft) 95,65 %
21.05.2023 06:08 12,7 C 11,7 C 8,3 C 90 % 1016,9 hPa 0,0 l/m 0 min 0 min 11 W/m 3,2 km/h (1 Bft) 95,79 %
21.05.2023 06:12 12,7 C 12,2 C 8,9 C 90 % 1016,9 hPa 0,0 l/m 0 min 0 min 13 W/m 3,2 km/h (1 Bft) 96,36 %
21.05.2023 06:14 12,7 C 12,2 C 8,9 C 90 % 1016,9 hPa 0,0 l/m 0 min 0 min 14 W/m 3,2 km/h (1 Bft) 92,00 %
21.05.2023 06:16 12,7 C 12,2 C 8,3 C 90 % 1016,9 hPa 0,0 l/m 0 min 0 min 15 W/m 3,2 km/h (1 Bft) 95,74 %
21.05.2023 06:18 12,7 C 12,2 C 8,9 C 90 % 1016,9 hPa 0,0 l/m 0 min 0 min 16 W/m 0,0 km/h (0 Bft) 95,74 %
21.05.2023 06:20 12,7 C 12,2 C 8,9 C 90 % 1017,0 hPa 0,0 l/m 0 min 0 min 17 W/m 3,2 km/h (1 Bft) 95,74 %
21.05.2023 06:22 12,7 C 12,2 C 8,9 C 90 % 1016,9 hPa 0,0 l/m 0 min 0 min 18 W/m 6,4 km/h (2 Bft) 47,37 %
21.05.2023 06:24 12,7 C 12,2 C 8,9 C 90 % 1017,0 hPa 0,0 l/m 0 min 0 min 19 W/m 3,2 km/h (1 Bft) 91,30 %
21.05.2023 06:26 12,7 C 12,2 C 8,9 C 90 % 1017,0 hPa 0,0 l/m 0 min 0 min 19 W/m 0,0 km/h (0 Bft) 93,62 %
21.05.2023 06:28 12,7 C 12,2 C 8,9 C 90 % 1017,0 hPa 0,0 l/m 0 min 0 min 21 W/m 3,2 km/h (1 Bft) 91,49 %
21.05.2023 06:30 12,7 C 12,2 C 8,9 C 90 % 1016,9 hPa 0,0 l/m 0 min 0 min 22 W/m 3,2 km/h (1 Bft) 93,62 %
21.05.2023 06:32 12,7 C 12,2 C 8,9 C 90 % 1016,9 hPa 0,0 l/m 0 min 0 min 23 W/m 6,4 km/h (2 Bft) 93,62 %
21.05.2023 06:34 12,7 C 12,2 C 8,9 C 90 % 1016,9 hPa 0,0 l/m 0 min 0 min 25 W/m 6,4 km/h (2 Bft) 95,74 %
21.05.2023 06:36 12,7 C 12,2 C 8,9 C 90 % 1017,0 hPa 0,0 l/m 0 min 0 min 25 W/m 6,4 km/h (2 Bft) 95,74 %
21.05.2023 06:38 12,8 C 12,2 C 8,9 C 90 % 1017,0 hPa 0,0 l/m 0 min 0 min 26 W/m 3,2 km/h (1 Bft) 93,48 %
21.05.2023 06:40 12,8 C 12,2 C 8,9 C 90 % 1017,0 hPa 0,0 l/m 0 min 0 min 26 W/m 6,4 km/h (2 Bft) 95,74 %
21.05.2023 06:42 12,8 C 12,2 C 8,9 C 90 % 1017,0 hPa 0,0 l/m 0 min 0 min 27 W/m 6,4 km/h (2 Bft) 95,74 %
21.05.2023 06:44 12,8 C 12,2 C 8,9 C 90 % 1017,1 hPa 0,0 l/m 0 min 0 min 28 W/m 6,4 km/h (2 Bft) 95,74 %
21.05.2023 06:46 12,8 C 12,2 C 8,9 C 90 % 1017,1 hPa 0,0 l/m 0 min 0 min 30 W/m 3,2 km/h (1 Bft) 93,62 %
21.05.2023 06:48 12,8 C 12,2 C 8,9 C 90 % 1017,0 hPa 0,0 l/m 0 min 0 min 32 W/m 3,2 km/h (1 Bft) 93,62 %
21.05.2023 06:50 12,8 C 12,2 C 8,9 C 90 % 1017,1 hPa 0,0 l/m 0 min 0 min 34 W/m 3,2 km/h (1 Bft) 95,65 %
21.05.2023 06:52 12,8 C 12,2 C 8,9 C 90 % 1017,1 hPa 0,0 l/m 0 min 0 min 36 W/m 6,4 km/h (2 Bft) 95,74 %
21.05.2023 06:54 12,9 C 12,2 C 8,9 C 90 % 1017,0 hPa 0,0 l/m 0 min 0 min 38 W/m 3,2 km/h (1 Bft) 93,62 %
21.05.2023 06:56 12,9 C 12,8 C 8,9 C 90 % 1017,1 hPa 0,0 l/m 0 min 0 min 39 W/m 3,2 km/h (1 Bft) 95,74 %
21.05.2023 06:58 12,9 C 12,8 C 8,9 C 90 % 1017,1 hPa 0,0 l/m 0 min 0 min 40 W/m 6,4 km/h (2 Bft) 93,62 %
21.05.2023 07:00 12,9 C 12,8 C 8,9 C 90 % 1017,1 hPa 0,0 l/m 0 min 0 min 43 W/m 3,2 km/h (1 Bft) 95,74 %
21.05.2023 07:02 12,9 C 12,8 C 8,9 C 90 % 1017,0 hPa 0,0 l/m 0 min 0 min 45 W/m 3,2 km/h (1 Bft) 95,74 %
21.05.2023 07:04 12,9 C 12,8 C 8,9 C 90 % 1017,0 hPa 0,0 l/m 0 min 0 min 47 W/m 3,2 km/h (1 Bft) 100,00 %
21.05.2023 07:06 13,0 C 12,8 C 8,9 C 90 % 1017,0 hPa 0,0 l/m 0 min 0 min 49 W/m 3,2 km/h (1 Bft) 97,87 %
21.05.2023 07:08 13,0 C 12,8 C 8,9 C 90 % 1017,0 hPa 0,0 l/m 0 min 0 min 51 W/m 9,7 km/h (2 Bft) 100,00 %
21.05.2023 07:10 13,0 C 12,8 C 8,9 C 90 % 1017,0 hPa 0,0 l/m 0 min 0 min 54 W/m 3,2 km/h (1 Bft) 100,00 %
21.05.2023 07:12 13,0 C 12,8 C 8,9 C 90 % 1017,0 hPa 0,0 l/m 0 min 0 min 56 W/m 3,2 km/h (1 Bft) 97,87 %
21.05.2023 07:14 13,1 C 12,8 C 9,4 C 90 % 1017,0 hPa 0,0 l/m 0 min 0 min 59 W/m 6,4 km/h (2 Bft) 97,87 %
21.05.2023 07:16 13,1 C 12,8 C 9,4 C 90 % 1016,9 hPa 0,0 l/m 0 min 0 min 62 W/m 6,4 km/h (2 Bft) 97,87 %
21.05.2023 07:18 13,1 C 12,8 C 9,4 C 90 % 1017,0 hPa 0,0 l/m 0 min 0 min 65 W/m 9,7 km/h (2 Bft) 100,00 %
21.05.2023 07:20 13,1 C 12,8 C 9,4 C 90 % 1017,0 hPa 0,0 l/m 0 min 0 min 68 W/m 6,4 km/h (2 Bft) 97,87 %
21.05.2023 07:22 13,1 C 12,8 C 9,4 C 90 % 1017,0 hPa 0,0 l/m 0 min 0 min 70 W/m 6,4 km/h (2 Bft) 100,00 %
21.05.2023 07:24 13,2 C 12,8 C 9,4 C 90 % 1016,9 hPa 0,0 l/m 0 min 0 min 74 W/m 3,2 km/h (1 Bft) 100,00 %
21.05.2023 07:26 13,2 C 12,8 C 9,4 C 90 % 1016,9 hPa 0,0 l/m 0 min 0 min 77 W/m 3,2 km/h (1 Bft) 100,00 %
21.05.2023 07:28 13,2 C 12,8 C 9,4 C 90 % 1017,0 hPa 0,0 l/m 0 min 0 min 78 W/m 6,4 km/h (2 Bft) 100,00 %
21.05.2023 07:30 13,2 C 12,8 C 9,4 C 90 % 1016,9 hPa 0,0 l/m 0 min 0 min 81 W/m 3,2 km/h (1 Bft) 100,00 %
21.05.2023 07:32 13,3 C 13,3 C 9,4 C 90 % 1016,9 hPa 0,0 l/m 0 min 0 min 81 W/m 3,2 km/h (1 Bft) 100,00 %
21.05.2023 07:34 13,3 C 13,3 C 9,4 C 90 % 1016,9 hPa 0,0 l/m 0 min 0 min 83 W/m 6,4 km/h (2 Bft) 97,96 %
21.05.2023 07:36 13,3 C 13,3 C 9,4 C 90 % 1016,9 hPa 0,0 l/m 0 min 0 min 85 W/m 3,2 km/h (1 Bft) 100,00 %
21.05.2023 07:38 13,3 C 13,3 C 9,4 C 90 % 1016,8 hPa 0,0 l/m 0 min 0 min 87 W/m 12,9 km/h (3 Bft) 100,00 %
21.05.2023 07:40 13,4 C 13,3 C 9,4 C 90 % 1016,8 hPa 0,0 l/m 0 min 0 min 90 W/m 6,4 km/h (2 Bft) 98,00 %
21.05.2023 07:42 13,4 C 13,3 C 9,4 C 89 % 1016,8 hPa 0,0 l/m 0 min 0 min 94 W/m 3,2 km/h (1 Bft) 100,00 %
21.05.2023 07:44 13,4 C 13,3 C 9,4 C 90 % 1016,9 hPa 0,0 l/m 0 min 0 min 96 W/m 6,4 km/h (2 Bft) 97,87 %
21.05.2023 07:46 13,4 C 13,3 C 9,4 C 89 % 1016,8 hPa 0,0 l/m 0 min 0 min 99 W/m 12,9 km/h (3 Bft) 100,00 %
21.05.2023 07:48 13,5 C 13,3 C 9,4 C 89 % 1016,9 hPa 0,0 l/m 0 min 0 min 101 W/m 9,7 km/h (2 Bft) 97,87 %
21.05.2023 07:50 13,6 C 13,3 C 9,4 C 89 % 1016,9 hPa 0,0 l/m 0 min 0 min 103 W/m 6,4 km/h (2 Bft) 97,87 %
21.05.2023 07:52 13,6 C 13,3 C 10,0 C 89 % 1016,8 hPa 0,0 l/m 0 min 0 min 104 W/m 9,7 km/h (2 Bft) 97,87 %
21.05.2023 07:54 13,6 C 13,3 C 10,0 C 89 % 1016,8 hPa 0,0 l/m 0 min 0 min 104 W/m 6,4 km/h (2 Bft) 97,87 %
21.05.2023 07:56 13,7 C 13,9 C 10,0 C 89 % 1016,9 hPa 0,0 l/m 0 min 0 min 102 W/m 6,4 km/h (2 Bft) 97,87 %
21.05.2023 07:58 13,7 C 13,9 C 10,0 C 89 % 1016,9 hPa 0,0 l/m 0 min 0 min 100 W/m 12,9 km/h (3 Bft) 97,87 %
21.05.2023 08:00 13,7 C 13,9 C 10,0 C 89 % 1016,9 hPa 0,0 l/m 0 min 0 min 101 W/m 3,2 km/h (1 Bft) 97,83 %
21.05.2023 08:02 13,7 C 13,9 C 10,0 C 89 % 1016,9 hPa 0,0 l/m 0 min 0 min 103 W/m 3,2 km/h (1 Bft) 95,74 %
21.05.2023 08:04 13,8 C 13,9 C 10,0 C 89 % 1016,9 hPa 0,0 l/m 0 min 0 min 108 W/m 12,9 km/h (3 Bft) 97,92 %
21.05.2023 08:06 13,8 C 13,9 C 10,0 C 89 % 1016,8 hPa 0,0 l/m 0 min 0 min 114 W/m 22,5 km/h (4 Bft) 95,74 %
21.05.2023 08:08 13,8 C 13,9 C 10,0 C 88 % 1016,8 hPa 0,0 l/m 0 min 0 min 120 W/m 9,7 km/h (2 Bft) 97,87 %
21.05.2023 08:10 13,8 C 13,9 C 10,0 C 88 % 1016,8 hPa 0,0 l/m 0 min 0 min 126 W/m 6,4 km/h (2 Bft) 97,83 %
21.05.2023 08:12 13,9 C 13,9 C 10,0 C 88 % 1016,8 hPa 0,0 l/m 0 min 0 min 135 W/m 6,4 km/h (2 Bft) 97,87 %
21.05.2023 08:14 13,9 C 13,9 C 10,0 C 88 % 1016,8 hPa 0,0 l/m 0 min 0 min 144 W/m 6,4 km/h (2 Bft) 97,87 %
21.05.2023 08:16 13,9 C 13,9 C 10,0 C 88 % 1016,8 hPa 0,0 l/m 0 min 0 min 147 W/m 9,7 km/h (2 Bft) 97,87 %
21.05.2023 08:18 14,0 C 14,4 C 10,0 C 88 % 1016,8 hPa 0,0 l/m 0 min 0 min 148 W/m 9,7 km/h (2 Bft) 97,87 %
21.05.2023 08:20 14,1 C 14,4 C 10,6 C 88 % 1016,8 hPa 0,0 l/m 0 min 0 min 147 W/m 16,1 km/h (3 Bft) 97,87 %
21.05.2023 08:22 14,1 C 14,4 C 10,6 C 88 % 1016,8 hPa 0,0 l/m 0 min 0 min 145 W/m 6,4 km/h (2 Bft) 97,83 %
21.05.2023 08:24 14,2 C 14,4 C 10,6 C 88 % 1016,8 hPa 0,0 l/m 0 min 0 min 163 W/m 6,4 km/h (2 Bft) 95,74 %
21.05.2023 08:26 14,3 C 15,0 C 10,6 C 88 % 1016,7 hPa 0,0 l/m 0 min 0 min 173 W/m 6,4 km/h (2 Bft) 100,00 %
21.05.2023 08:28 14,3 C 15,0 C 10,6 C 88 % 1016,7 hPa 0,0 l/m 0 min 0 min 168 W/m 12,9 km/h (3 Bft) 100,00 %
21.05.2023 08:30 14,3 C 15,0 C 10,6 C 88 % 1016,7 hPa 0,0 l/m 0 min 0 min 160 W/m 9,7 km/h (2 Bft) 100,00 %
21.05.2023 08:32 14,3 C 15,0 C 10,6 C 87 % 1016,7 hPa 0,0 l/m 0 min 0 min 165 W/m 6,4 km/h (2 Bft) 100,00 %
21.05.2023 08:34 14,3 C 15,0 C 10,6 C 88 % 1016,7 hPa 0,0 l/m 0 min 0 min 179 W/m 6,4 km/h (2 Bft) 97,83 %
21.05.2023 08:36 14,4 C 15,0 C 10,6 C 87 % 1016,8 hPa 0,0 l/m 0 min 0 min 186 W/m 16,1 km/h (3 Bft) 100,00 %
21.05.2023 08:38 14,4 C 15,0 C 10,6 C 87 % 1016,8 hPa 0,0 l/m 0 min 0 min 188 W/m 9,7 km/h (2 Bft) 97,87 %
21.05.2023 08:40 14,5 C 15,6 C 11,1 C 87 % 1016,7 hPa 0,0 l/m 2 min 0 min 215 W/m 6,4 km/h (2 Bft) 97,87 %
21.05.2023 08:42 14,5 C 15,6 C 11,1 C 87 % 1016,8 hPa 0,0 l/m 0 min 0 min 216 W/m 12,9 km/h (3 Bft) 100,00 %
21.05.2023 08:44 14,6 C 15,6 C 11,1 C 87 % 1016,8 hPa 0,0 l/m 2 min 0 min 224 W/m 12,9 km/h (3 Bft) 100,00 %
21.05.2023 08:46 14,6 C 16,1 C 11,1 C 86 % 1016,8 hPa 0,0 l/m 2 min 0 min 230 W/m 12,9 km/h (3 Bft) 100,00 %
21.05.2023 08:48 14,7 C 16,1 C 11,1 C 86 % 1016,8 hPa 0,0 l/m 2 min 0 min 234 W/m 12,9 km/h (3 Bft) 100,00 %
21.05.2023 08:50 14,8 C 16,1 C 11,1 C 86 % 1016,8 hPa 0,0 l/m 2 min 0 min 228 W/m 9,7 km/h (2 Bft) 97,87 %
21.05.2023 08:52 14,9 C 16,7 C 11,1 C 86 % 1016,8 hPa 0,0 l/m 0 min 0 min 223 W/m 6,4 km/h (2 Bft) 97,87 %
21.05.2023 08:54 14,9 C 16,1 C 11,1 C 86 % 1016,8 hPa 0,0 l/m 0 min 0 min 221 W/m 6,4 km/h (2 Bft) 100,00 %
21.05.2023 08:56 15,0 C 16,1 C 11,7 C 86 % 1016,7 hPa 0,0 l/m 0 min 0 min 220 W/m 9,7 km/h (2 Bft) 100,00 %
21.05.2023 08:58 15,1 C 16,7 C 11,7 C 86 % 1016,7 hPa 0,0 l/m 0 min 0 min 222 W/m 9,7 km/h (2 Bft) 100,00 %
21.05.2023 09:00 15,1 C 16,7 C 11,7 C 85 % 1016,8 hPa 0,0 l/m 0 min 0 min 225 W/m 6,4 km/h (2 Bft) 97,22 %
21.05.2023 09:02 15,2 C 16,7 C 11,7 C 85 % 1016,8 hPa 0,0 l/m 2 min 0 min 253 W/m 3,2 km/h (1 Bft) 97,87 %
21.05.2023 09:04 15,3 C 16,7 C 11,7 C 85 % 1016,8 hPa 0,0 l/m 2 min 0 min 267 W/m 12,9 km/h (3 Bft) 97,92 %
21.05.2023 09:06 15,4 C 17,2 C 11,7 C 85 % 1016,7 hPa 0,0 l/m 2 min 0 min 274 W/m 6,4 km/h (2 Bft) 94,83 %
21.05.2023 09:08 15,4 C 17,2 C 12,2 C 85 % 1016,8 hPa 0,0 l/m 2 min 0 min 284 W/m 6,4 km/h (2 Bft) 97,14 %
21.05.2023 09:10 15,5 C 17,8 C 12,2 C 85 % 1016,8 hPa 0,0 l/m 2 min 0 min 309 W/m 9,7 km/h (2 Bft) 91,49 %
21.05.2023 09:12 15,6 C 17,8 C 12,2 C 84 % 1016,8 hPa 0,0 l/m 2 min 0 min 345 W/m 9,7 km/h (2 Bft) 93,62 %
21.05.2023 09:14 15,7 C 18,9 C 12,8 C 84 % 1016,8 hPa 0,0 l/m 2 min 0 min 378 W/m 6,4 km/h (2 Bft) 95,74 %
21.05.2023 09:16 15,8 C 18,9 C 12,8 C 84 % 1016,8 hPa 0,0 l/m 2 min 0 min 405 W/m 12,9 km/h (3 Bft) 97,87 %
21.05.2023 09:18 15,9 C 18,9 C 12,8 C 83 % 1016,8 hPa 0,0 l/m 2 min 0 min 439 W/m 9,7 km/h (2 Bft) 95,74 %
21.05.2023 09:20 16,1 C 19,4 C 13,3 C 83 % 1016,8 hPa 0,0 l/m 2 min 0 min 473 W/m 9,7 km/h (2 Bft) 95,65 %
21.05.2023 09:22 16,2 C 20,6 C 13,3 C 83 % 1016,8 hPa 0,0 l/m 2 min 0 min 501 W/m 9,7 km/h (2 Bft) 95,74 %
21.05.2023 09:24 16,4 C 21,1 C 13,9 C 83 % 1016,8 hPa 0,0 l/m 2 min 0 min 519 W/m 9,7 km/h (2 Bft) 95,74 %
21.05.2023 09:26 16,6 C 21,7 C 13,9 C 82 % 1016,8 hPa 0,0 l/m 2 min 0 min 525 W/m 9,7 km/h (2 Bft) 95,74 %
21.05.2023 09:28 16,8 C 21,7 C 14,4 C 82 % 1016,8 hPa 0,0 l/m 2 min 0 min 502 W/m 9,7 km/h (2 Bft) 93,62 %
21.05.2023 09:30 17,0 C 21,7 C 14,4 C 82 % 1016,8 hPa 0,0 l/m 2 min 0 min 480 W/m 6,4 km/h (2 Bft) 95,74 %
21.05.2023 09:32 17,2 C 21,7 C 14,4 C 81 % 1016,9 hPa 0,0 l/m 2 min 0 min 488 W/m 9,7 km/h (2 Bft) 97,87 %
21.05.2023 09:34 17,3 C 21,1 C 14,4 C 80 % 1016,8 hPa 0,0 l/m 2 min 0 min 482 W/m 16,1 km/h (3 Bft) 95,65 %
21.05.2023 09:36 17,3 C 20,6 C 14,4 C 79 % 1016,8 hPa 0,0 l/m 2 min 0 min 438 W/m 6,4 km/h (2 Bft) 95,74 %
21.05.2023 09:38 17,4 C 20,6 C 14,4 C 79 % 1016,9 hPa 0,0 l/m 2 min 0 min 407 W/m 9,7 km/h (2 Bft) 95,74 %
21.05.2023 09:40 17,4 C 20,0 C 14,4 C 79 % 1016,8 hPa 0,0 l/m 2 min 0 min 407 W/m 9,7 km/h (2 Bft) 97,87 %
21.05.2023 09:42 17,6 C 20,0 C 14,4 C 80 % 1016,8 hPa 0,0 l/m 2 min 0 min 395 W/m 6,4 km/h (2 Bft) 93,62 %
21.05.2023 09:44 17,6 C 20,0 C 14,4 C 79 % 1016,8 hPa 0,0 l/m 2 min 0 min 392 W/m 12,9 km/h (3 Bft) 97,87 %
21.05.2023 09:46 17,7 C 20,0 C 14,4 C 79 % 1016,8 hPa 0,0 l/m 2 min 0 min 394 W/m 9,7 km/h (2 Bft) 95,65 %
21.05.2023 09:48 17,7 C 20,6 C 14,4 C 79 % 1016,7 hPa 0,0 l/m 2 min 0 min 415 W/m 6,4 km/h (2 Bft) 95,74 %
21.05.2023 09:50 17,8 C 20,6 C 14,4 C 79 % 1016,7 hPa 0,0 l/m 2 min 0 min 421 W/m 6,4 km/h (2 Bft) 97,87 %
21.05.2023 09:52 17,9 C 21,1 C 14,4 C 79 % 1016,7 hPa 0,0 l/m 2 min 0 min 441 W/m 6,4 km/h (2 Bft) 95,74 %
21.05.2023 09:54 17,9 C 21,1 C 14,4 C 78 % 1016,7 hPa 0,0 l/m 2 min 0 min 435 W/m 9,7 km/h (2 Bft) 95,74 %
21.05.2023 09:56 18,0 C 20,6 C 14,4 C 78 % 1016,7 hPa 0,0 l/m 2 min 0 min 421 W/m 12,9 km/h (3 Bft) 93,62 %
21.05.2023 09:58 18,0 C 20,6 C 15,0 C 78 % 1016,7 hPa 0,0 l/m 2 min 0 min 430 W/m 6,4 km/h (2 Bft) 95,74 %
21.05.2023 10:00 17,9 C 20,0 C 14,4 C 77 % 1016,7 hPa 0,0 l/m 2 min 0 min 406 W/m 6,4 km/h (2 Bft) 93,48 %
21.05.2023 10:02 17,9 C 19,4 C 14,4 C 77 % 1016,7 hPa 0,0 l/m 2 min 0 min 427 W/m 6,4 km/h (2 Bft) 95,74 %
21.05.2023 10:04 17,9 C 19,4 C 15,0 C 77 % 1016,7 hPa 0,0 l/m 2 min 0 min 404 W/m 9,7 km/h (2 Bft) 93,75 %
21.05.2023 10:06 17,9 C 19,4 C 15,0 C 78 % 1016,7 hPa 0,0 l/m 2 min 0 min 426 W/m 16,1 km/h (3 Bft) 94,92 %
21.05.2023 10:08 18,0 C 20,0 C 15,0 C 78 % 1016,7 hPa 0,0 l/m 2 min 0 min 449 W/m 6,4 km/h (2 Bft) 97,14 %
21.05.2023 10:10 18,1 C 20,6 C 15,0 C 78 % 1016,7 hPa 0,0 l/m 2 min 0 min 418 W/m 6,4 km/h (2 Bft) 91,49 %
21.05.2023 10:12 18,1 C 20,6 C 15,0 C 77 % 1016,7 hPa 0,0 l/m 2 min 0 min 410 W/m 12,9 km/h (3 Bft) 95,65 %
21.05.2023 10:14 18,2 C 20,6 C 15,0 C 77 % 1016,6 hPa 0,0 l/m 2 min 0 min 388 W/m 3,2 km/h (1 Bft) 95,74 %
21.05.2023 10:16 18,2 C 20,6 C 15,0 C 77 % 1016,6 hPa 0,0 l/m 2 min 0 min 380 W/m 12,9 km/h (3 Bft) 95,74 %
21.05.2023 10:18 18,2 C 20,0 C 14,4 C 77 % 1016,7 hPa 0,0 l/m 2 min 0 min 353 W/m 6,4 km/h (2 Bft) 93,62 %
21.05.2023 10:20 18,3 C 20,0 C 14,4 C 77 % 1016,6 hPa 0,0 l/m 2 min 0 min 366 W/m 9,7 km/h (2 Bft) 95,74 %
21.05.2023 10:22 18,3 C 20,0 C 14,4 C 77 % 1016,6 hPa 0,0 l/m 2 min 0 min 358 W/m 6,4 km/h (2 Bft) 97,87 %
21.05.2023 10:24 18,3 C 20,0 C 15,0 C 77 % 1016,7 hPa 0,0 l/m 2 min 0 min 370 W/m 3,2 km/h (1 Bft) 97,87 %
21.05.2023 10:26 18,3 C 20,0 C 15,0 C 77 % 1016,7 hPa 0,0 l/m 2 min 0 min 406 W/m 9,7 km/h (2 Bft) 97,83 %
21.05.2023 10:28 18,4 C 20,6 C 15,0 C 77 % 1016,6 hPa 0,0 l/m 2 min 0 min 425 W/m 6,4 km/h (2 Bft) 100,00 %
21.05.2023 10:30 18,4 C 20,6 C 15,0 C 77 % 1016,7 hPa 0,0 l/m 2 min 0 min 453 W/m 6,4 km/h (2 Bft) 100,00 %
21.05.2023 10:32 18,5 C 21,1 C 15,0 C 77 % 1016,7 hPa 0,0 l/m 2 min 0 min 528 W/m 9,7 km/h (2 Bft) 100,00 %
21.05.2023 10:34 18,6 C 20,6 C 15,6 C 77 % 1016,7 hPa 0,0 l/m 2 min 0 min 571 W/m 6,4 km/h (2 Bft) 100,00 %
21.05.2023 10:36 18,6 C 20,6 C 15,0 C 76 % 1016,7 hPa 0,0 l/m 2 min 0 min 549 W/m 12,9 km/h (3 Bft) 97,87 %
21.05.2023 10:38 18,6 C 21,1 C 15,0 C 76 % 1016,7 hPa 0,0 l/m 2 min 0 min 532 W/m 6,4 km/h (2 Bft) 100,00 %
21.05.2023 10:40 18,7 C 21,1 C 15,6 C 77 % 1016,7 hPa 0,0 l/m 2 min 0 min 555 W/m 9,7 km/h (2 Bft) 97,87 %
21.05.2023 10:42 18,8 C 21,7 C 15,6 C 77 % 1016,7 hPa 0,0 l/m 2 min 0 min 628 W/m 12,9 km/h (3 Bft) 100,00 %
21.05.2023 10:44 18,9 C 21,7 C 15,6 C 76 % 1016,7 hPa 0,0 l/m 2 min 0 min 585 W/m 9,7 km/h (2 Bft) 100,00 %
21.05.2023 10:46 19,0 C 21,1 C 15,6 C 76 % 1016,6 hPa 0,0 l/m 2 min 0 min 509 W/m 12,9 km/h (3 Bft) 97,87 %
21.05.2023 10:48 19,1 C 21,1 C 15,6 C 76 % 1016,6 hPa 0,0 l/m 2 min 0 min 504 W/m 9,7 km/h (2 Bft) 100,00 %
21.05.2023 10:50 19,1 C 21,1 C 15,6 C 76 % 1016,6 hPa 0,0 l/m 2 min 0 min 477 W/m 9,7 km/h (2 Bft) 100,00 %
21.05.2023 10:52 19,2 C 21,7 C 15,6 C 76 % 1016,6 hPa 0,0 l/m 2 min 0 min 468 W/m 12,9 km/h (3 Bft) 97,83 %
21.05.2023 10:54 19,3 C 21,1 C 15,6 C 76 % 1016,6 hPa 0,0 l/m 2 min 0 min 443 W/m 9,7 km/h (2 Bft) 100,00 %
21.05.2023 10:56 19,3 C 21,1 C 15,6 C 76 % 1016,6 hPa 0,0 l/m 2 min 0 min 423 W/m 9,7 km/h (2 Bft) 100,00 %
21.05.2023 10:58 19,2 C 20,6 C 15,6 C 75 % 1016,5 hPa 0,0 l/m 2 min 0 min 402 W/m 16,1 km/h (3 Bft) 97,87 %
21.05.2023 11:00 19,2 C 20,0 C 15,6 C 75 % 1016,5 hPa 0,0 l/m 2 min 0 min 388 W/m 12,9 km/h (3 Bft) 100,00 %
21.05.2023 11:02 19,1 C 19,4 C 15,0 C 75 % 1016,6 hPa 0,0 l/m 2 min 0 min 377 W/m 9,7 km/h (2 Bft) 100,00 %
21.05.2023 11:04 19,1 C 19,4 C 15,0 C 75 % 1016,6 hPa 0,0 l/m 2 min 0 min 372 W/m 6,4 km/h (2 Bft) 100,00 %
21.05.2023 11:06 19,1 C 20,0 C 15,0 C 76 % 1016,6 hPa 0,0 l/m 2 min 0 min 373 W/m 6,4 km/h (2 Bft) 98,31 %
21.05.2023 11:08 19,1 C 20,0 C 15,0 C 76 % 1016,6 hPa 0,0 l/m 2 min 0 min 384 W/m 9,7 km/h (2 Bft) 100,00 %
21.05.2023 11:10 19,1 C 20,0 C 15,0 C 76 % 1016,6 hPa 0,0 l/m 2 min 0 min 386 W/m 9,7 km/h (2 Bft) 100,00 %
21.05.2023 11:12 19,1 C 20,6 C 15,0 C 76 % 1016,6 hPa 0,0 l/m 2 min 0 min 381 W/m 12,9 km/h (3 Bft) 100,00 %
21.05.2023 11:14 19,0 C 20,0 C 15,0 C 76 % 1016,6 hPa 0,0 l/m 2 min 0 min 374 W/m 12,9 km/h (3 Bft) 100,00 %
21.05.2023 11:16 19,0 C 20,0 C 15,0 C 76 % 1016,6 hPa 0,0 l/m 2 min 0 min 368 W/m 9,7 km/h (2 Bft) 100,00 %
21.05.2023 11:18 19,1 C 20,0 C 15,0 C 76 % 1016,5 hPa 0,0 l/m 2 min 0 min 377 W/m 16,1 km/h (3 Bft) 100,00 %
21.05.2023 11:20 19,0 C 20,0 C 15,0 C 76 % 1016,6 hPa 0,0 l/m 2 min 0 min 373 W/m 12,9 km/h (3 Bft) 97,87 %
21.05.2023 11:22 19,0 C 19,4 C 15,0 C 76 % 1016,6 hPa 0,0 l/m 0 min 0 min 367 W/m 9,7 km/h (2 Bft) 97,87 %
21.05.2023 11:24 18,9 C 19,4 C 15,0 C 76 % 1016,6 hPa 0,0 l/m 0 min 0 min 370 W/m 12,9 km/h (3 Bft) 100,00 %
21.05.2023 11:26 19,0 C 20,0 C 15,0 C 77 % 1016,6 hPa 0,0 l/m 0 min 0 min 359 W/m 9,7 km/h (2 Bft) 100,00 %
21.05.2023 11:28 19,1 C 20,0 C 15,6 C 76 % 1016,6 hPa 0,0 l/m 0 min 0 min 356 W/m 12,9 km/h (3 Bft) 97,87 %
21.05.2023 11:30 19,1 C 20,0 C 15,0 C 76 % 1016,6 hPa 0,0 l/m 2 min 0 min 418 W/m 12,9 km/h (3 Bft) 97,83 %
21.05.2023 11:32 19,1 C 20,6 C 15,6 C 76 % 1016,5 hPa 0,0 l/m 2 min 0 min 524 W/m 6,4 km/h (2 Bft) 97,87 %
21.05.2023 11:34 19,2 C 21,7 C 16,1 C 77 % 1016,5 hPa 0,0 l/m 2 min 0 min 590 W/m 9,7 km/h (2 Bft) 97,87 %
21.05.2023 11:36 19,3 C 22,8 C 16,1 C 77 % 1016,5 hPa 0,0 l/m 2 min 0 min 682 W/m 6,4 km/h (2 Bft) 97,87 %
21.05.2023 11:38 19,4 C 23,3 C 16,7 C 76 % 1016,5 hPa 0,0 l/m 2 min 0 min 759 W/m 12,9 km/h (3 Bft) 97,87 %
21.05.2023 11:40 19,6 C 23,9 C 17,2 C 76 % 1016,5 hPa 0,0 l/m 2 min 0 min 763 W/m 16,1 km/h (3 Bft) 95,74 %
21.05.2023 11:42 19,7 C 23,3 C 17,2 C 75 % 1016,5 hPa 0,0 l/m 2 min 0 min 770 W/m 19,3 km/h (3 Bft) 95,65 %
21.05.2023 11:44 19,8 C 23,9 C 17,8 C 75 % 1016,5 hPa 0,0 l/m 2 min 0 min 722 W/m 9,7 km/h (2 Bft) 91,49 %
21.05.2023 11:46 20,0 C 23,9 C 17,8 C 75 % 1016,5 hPa 0,0 l/m 2 min 0 min 749 W/m 22,5 km/h (4 Bft) 95,74 %
21.05.2023 11:48 20,1 C 23,3 C 17,2 C 74 % 1016,5 hPa 0,0 l/m 2 min 0 min 622 W/m 6,4 km/h (2 Bft) 95,74 %
21.05.2023 11:50 20,2 C 23,9 C 17,2 C 74 % 1016,4 hPa 0,0 l/m 2 min 0 min 596 W/m 12,9 km/h (3 Bft) 97,87 %
21.05.2023 11:52 20,3 C 23,9 C 17,2 C 73 % 1016,5 hPa 0,0 l/m 2 min 0 min 716 W/m 22,5 km/h (4 Bft) 95,74 %
21.05.2023 11:54 20,3 C 23,9 C 17,2 C 73 % 1016,5 hPa 0,0 l/m 2 min 0 min 732 W/m 9,7 km/h (2 Bft) 95,74 %
21.05.2023 11:56 20,4 C 24,4 C 17,2 C 73 % 1016,5 hPa 0,0 l/m 2 min 0 min 724 W/m 12,9 km/h (3 Bft) 97,83 %
21.05.2023 11:58 20,4 C 23,3 C 17,2 C 73 % 1016,4 hPa 0,0 l/m 2 min 0 min 657 W/m 12,9 km/h (3 Bft) 95,74 %
21.05.2023 12:00 20,4 C 23,9 C 17,2 C 73 % 1016,4 hPa 0,0 l/m 2 min 0 min 677 W/m 6,4 km/h (2 Bft) 95,74 %
21.05.2023 12:02 20,4 C 23,3 C 17,2 C 73 % 1016,4 hPa 0,0 l/m 2 min 0 min 666 W/m 12,9 km/h (3 Bft) 93,62 %
21.05.2023 12:04 20,5 C 23,9 C 17,2 C 73 % 1016,4 hPa 0,0 l/m 2 min 0 min 668 W/m 12,9 km/h (3 Bft) 95,83 %
21.05.2023 12:07 20,6 C 24,4 C 17,8 C 73 % 1016,3 hPa 0,0 l/m 3 min 0 min 849 W/m 16,1 km/h (3 Bft) 95,83 %
21.05.2023 12:08 20,6 C 25,0 C 17,8 C 73 % 1016,3 hPa 0,0 l/m 1 min 0 min 760 W/m 16,1 km/h (3 Bft) 95,74 %
21.05.2023 12:10 20,7 C 23,9 C 17,8 C 72 % 1016,3 hPa 0,0 l/m 2 min 0 min 469 W/m 12,9 km/h (3 Bft) 95,74 %
21.05.2023 12:12 20,8 C 25,0 C 18,3 C 72 % 1016,3 hPa 0,0 l/m 2 min 0 min 462 W/m 12,9 km/h (3 Bft) 95,74 %
21.05.2023 12:14 20,8 C 25,0 C 19,4 C 72 % 1016,3 hPa 0,0 l/m 2 min 0 min 823 W/m 9,7 km/h (2 Bft) 97,87 %
21.05.2023 12:16 20,8 C 24,4 C 20,0 C 71 % 1016,3 hPa 0,0 l/m 2 min 0 min 744 W/m 9,7 km/h (2 Bft) 95,74 %
21.05.2023 12:18 20,9 C 23,9 C 19,4 C 72 % 1016,2 hPa 0,0 l/m 2 min 0 min 668 W/m 6,4 km/h (2 Bft) 97,87 %
21.05.2023 12:20 21,0 C 23,9 C 19,4 C 72 % 1016,2 hPa 0,0 l/m 2 min 0 min 570 W/m 6,4 km/h (2 Bft) 95,74 %
21.05.2023 12:22 21,1 C 23,9 C 19,4 C 72 % 1016,2 hPa 0,0 l/m 2 min 0 min 541 W/m 12,9 km/h (3 Bft) 97,83 %
21.05.2023 12:24 21,1 C 23,9 C 18,9 C 71 % 1016,2 hPa 0,0 l/m 2 min 0 min 559 W/m 12,9 km/h (3 Bft) 97,87 %
21.05.2023 12:26 21,1 C 23,3 C 18,9 C 71 % 1016,2 hPa 0,0 l/m 2 min 0 min 552 W/m 6,4 km/h (2 Bft) 97,87 %
21.05.2023 12:28 21,1 C 23,9 C 18,9 C 72 % 1016,1 hPa 0,0 l/m 2 min 0 min 547 W/m 16,1 km/h (3 Bft) 97,87 %
21.05.2023 12:30 21,1 C 23,3 C 18,9 C 71 % 1016,1 hPa 0,0 l/m 2 min 0 min 619 W/m 19,3 km/h (3 Bft) 97,87 %
21.05.2023 12:32 21,1 C 23,9 C 18,9 C 72 % 1016,1 hPa 0,0 l/m 2 min 0 min 512 W/m 9,7 km/h (2 Bft) 95,74 %
21.05.2023 12:34 21,1 C 24,4 C 18,9 C 72 % 1016,1 hPa 0,0 l/m 2 min 0 min 521 W/m 6,4 km/h (2 Bft) 100,00 %
21.05.2023 12:36 21,1 C 25,0 C 19,4 C 72 % 1016,1 hPa 0,0 l/m 2 min 0 min 599 W/m 9,7 km/h (2 Bft) 100,00 %
21.05.2023 12:38 21,1 C 25,6 C 18,9 C 72 % 1016,1 hPa 0,0 l/m 2 min 0 min 589 W/m 9,7 km/h (2 Bft) 100,00 %
21.05.2023 12:40 21,1 C 26,1 C 20,0 C 72 % 1016,1 hPa 0,0 l/m 2 min 0 min 649 W/m 12,9 km/h (3 Bft) 100,00 %
21.05.2023 12:42 21,2 C 25,0 C 20,6 C 72 % 1016,1 hPa 0,0 l/m 2 min 0 min 669 W/m 12,9 km/h (3 Bft) 97,87 %
21.05.2023 12:44 21,2 C 23,9 C 19,4 C 71 % 1016,1 hPa 0,0 l/m 2 min 0 min 443 W/m 9,7 km/h (2 Bft) 100,00 %
21.05.2023 12:46 21,2 C 23,3 C 18,9 C 72 % 1016,1 hPa 0,0 l/m 0 min 0 min 335 W/m 9,7 km/h (2 Bft) 100,00 %
21.05.2023 12:48 21,1 C 22,8 C 18,3 C 71 % 1016,1 hPa 0,0 l/m 0 min 0 min 381 W/m 16,1 km/h (3 Bft) 100,00 %
21.05.2023 12:50 21,1 C 22,2 C 18,3 C 72 % 1016,0 hPa 0,0 l/m 0 min 0 min 386 W/m 9,7 km/h (2 Bft) 100,00 %
21.05.2023 12:52 21,0 C 22,2 C 17,8 C 72 % 1016,0 hPa 0,0 l/m 0 min 0 min 331 W/m 12,9 km/h (3 Bft) 95,74 %
21.05.2023 12:54 20,8 C 22,2 C 17,2 C 72 % 1016,0 hPa 0,0 l/m 0 min 0 min 362 W/m 12,9 km/h (3 Bft) 100,00 %
21.05.2023 12:56 20,8 C 22,8 C 17,8 C 73 % 1016,0 hPa 0,0 l/m 2 min 0 min 432 W/m 9,7 km/h (2 Bft) 97,87 %
21.05.2023 12:58 20,8 C 23,3 C 17,8 C 73 % 1016,0 hPa 0,0 l/m 2 min 0 min 466 W/m 9,7 km/h (2 Bft) 100,00 %
21.05.2023 13:00 20,8 C 23,9 C 18,9 C 73 % 1016,0 hPa 0,0 l/m 2 min 0 min 640 W/m 19,3 km/h (3 Bft) 100,00 %
21.05.2023 13:02 20,9 C 24,4 C 19,4 C 73 % 1015,9 hPa 0,0 l/m 2 min 0 min 766 W/m 12,9 km/h (3 Bft) 97,87 %
21.05.2023 13:04 21,0 C 24,4 C 18,9 C 73 % 1015,9 hPa 0,0 l/m 2 min 0 min 544 W/m 12,9 km/h (3 Bft) 100,00 %
21.05.2023 13:06 21,0 C 23,3 C 18,3 C 73 % 1015,9 hPa 0,0 l/m 2 min 0 min 485 W/m 22,5 km/h (4 Bft) 100,00 %
21.05.2023 13:08 21,1 C 23,9 C 18,3 C 73 % 1015,9 hPa 0,0 l/m 2 min 0 min 450 W/m 6,4 km/h (2 Bft) 97,87 %
21.05.2023 13:10 21,1 C 23,9 C 18,3 C 73 % 1015,9 hPa 0,0 l/m 2 min 0 min 507 W/m 9,7 km/h (2 Bft) 97,14 %
21.05.2023 13:12 21,1 C 23,9 C 18,3 C 72 % 1015,8 hPa 0,0 l/m 2 min 0 min 563 W/m 12,9 km/h (3 Bft) 98,15 %
21.05.2023 13:14 21,1 C 23,9 C 18,3 C 72 % 1015,8 hPa 0,0 l/m 2 min 0 min 602 W/m 12,9 km/h (3 Bft) 97,87 %
21.05.2023 13:16 21,2 C 25,0 C 18,9 C 72 % 1015,8 hPa 0,0 l/m 2 min 0 min 767 W/m 16,1 km/h (3 Bft) 97,87 %
21.05.2023 13:18 21,3 C 26,7 C 20,0 C 73 % 1015,8 hPa 0,0 l/m 2 min 0 min 964 W/m 19,3 km/h (3 Bft) 97,87 %
21.05.2023 13:20 21,4 C 25,0 C 20,0 C 71 % 1015,8 hPa 0,0 l/m 2 min 0 min 767 W/m 12,9 km/h (3 Bft) 97,87 %
21.05.2023 13:22 21,5 C 25,0 C 19,4 C 72 % 1015,8 hPa 0,0 l/m 2 min 0 min 630 W/m 12,9 km/h (3 Bft) 97,87 %
21.05.2023 13:24 21,6 C 25,0 C 19,4 C 72 % 1015,8 hPa 0,0 l/m 2 min 0 min 662 W/m 12,9 km/h (3 Bft) 97,83 %
21.05.2023 13:26 21,6 C 24,4 C 19,4 C 71 % 1015,8 hPa 0,0 l/m 2 min 0 min 611 W/m 16,1 km/h (3 Bft) 97,87 %
21.05.2023 13:28 21,6 C 24,4 C 19,4 C 71 % 1015,8 hPa 0,0 l/m 2 min 0 min 588 W/m 6,4 km/h (2 Bft) 97,87 %
21.05.2023 13:30 21,6 C 25,0 C 20,0 C 71 % 1015,7 hPa 0,0 l/m 2 min 0 min 565 W/m 12,9 km/h (3 Bft) 97,87 %
21.05.2023 13:32 21,7 C 25,6 C 20,6 C 72 % 1015,7 hPa 0,0 l/m 2 min 0 min 715 W/m 9,7 km/h (2 Bft) 97,87 %
21.05.2023 13:34 21,7 C 26,1 C 20,6 C 71 % 1015,7 hPa 0,0 l/m 2 min 0 min 760 W/m 16,1 km/h (3 Bft) 95,74 %
21.05.2023 13:36 21,8 C 26,1 C 21,1 C 71 % 1015,7 hPa 0,0 l/m 2 min 0 min 795 W/m 16,1 km/h (3 Bft) 97,83 %
21.05.2023 13:38 21,9 C 26,1 C 21,1 C 71 % 1015,6 hPa 0,0 l/m 2 min 0 min 719 W/m 19,3 km/h (3 Bft) 97,87 %
21.05.2023 13:40 21,9 C 26,7 C 21,7 C 71 % 1015,7 hPa 0,0 l/m 2 min 0 min 784 W/m 12,9 km/h (3 Bft) 97,87 %
21.05.2023 13:42 22,1 C 27,8 C 22,2 C 71 % 1015,7 hPa 0,0 l/m 2 min 0 min 848 W/m 16,1 km/h (3 Bft) 97,87 %
21.05.2023 13:44 22,2 C 27,8 C 22,2 C 70 % 1015,6 hPa 0,0 l/m 2 min 0 min 902 W/m 16,1 km/h (3 Bft) 97,87 %
21.05.2023 13:46 22,3 C 28,3 C 22,8 C 70 % 1015,5 hPa 0,0 l/m 2 min 0 min 924 W/m 16,1 km/h (3 Bft) 97,87 %
21.05.2023 13:48 22,4 C 28,3 C 22,2 C 70 % 1015,6 hPa 0,0 l/m 2 min 0 min 914 W/m 12,9 km/h (3 Bft) 95,74 %
21.05.2023 13:50 22,4 C 27,8 C 21,1 C 69 % 1015,6 hPa 0,0 l/m 2 min 0 min 914 W/m 16,1 km/h (3 Bft) 97,83 %
21.05.2023 13:52 22,4 C 27,8 C 20,6 C 69 % 1015,5 hPa 0,0 l/m 2 min 0 min 907 W/m 16,1 km/h (3 Bft) 97,87 %
21.05.2023 13:54 22,5 C 28,9 C 20,0 C 70 % 1015,6 hPa 0,0 l/m 2 min 0 min 897 W/m 9,7 km/h (2 Bft) 97,87 %
21.05.2023 13:56 22,6 C 28,3 C 19,4 C 70 % 1015,6 hPa 0,0 l/m 2 min 0 min 902 W/m 22,5 km/h (4 Bft) 95,74 %
21.05.2023 13:58 22,6 C 28,3 C 18,9 C 69 % 1015,5 hPa 0,0 l/m 2 min 0 min 898 W/m 9,7 km/h (2 Bft) 95,74 %
21.05.2023 14:00 22,7 C 28,9 C 18,9 C 69 % 1015,5 hPa 0,0 l/m 2 min 0 min 897 W/m 16,1 km/h (3 Bft) 95,74 %
21.05.2023 14:02 22,8 C 29,4 C 18,9 C 69 % 1015,6 hPa 0,0 l/m 2 min 0 min 897 W/m 19,3 km/h (3 Bft) 93,48 %
21.05.2023 14:04 22,9 C 29,4 C 18,9 C 69 % 1015,5 hPa 0,0 l/m 2 min 0 min 894 W/m 22,5 km/h (4 Bft) 92,86 %
21.05.2023 14:06 22,9 C 29,4 C 18,9 C 68 % 1015,4 hPa 0,0 l/m 2 min 0 min 899 W/m 12,9 km/h (3 Bft) 93,10 %
21.05.2023 14:08 23,0 C 28,3 C 18,3 C 68 % 1015,5 hPa 0,0 l/m 2 min 0 min 902 W/m 12,9 km/h (3 Bft) 91,67 %
21.05.2023 14:10 23,0 C 28,9 C 18,3 C 69 % 1015,4 hPa 0,0 l/m 2 min 0 min 906 W/m 12,9 km/h (3 Bft) 95,74 %
21.05.2023 14:12 23,0 C 28,9 C 18,3 C 68 % 1015,4 hPa 0,0 l/m 2 min 0 min 904 W/m 19,3 km/h (3 Bft) 93,48 %
21.05.2023 14:14 23,1 C 28,3 C 18,3 C 68 % 1015,4 hPa 0,0 l/m 2 min 0 min 899 W/m 22,5 km/h (4 Bft) 95,74 %
21.05.2023 14:16 23,1 C 28,9 C 18,3 C 68 % 1015,4 hPa 0,0 l/m 2 min 0 min 882 W/m 19,3 km/h (3 Bft) 95,74 %
21.05.2023 14:18 23,2 C 28,3 C 18,3 C 68 % 1015,4 hPa 0,0 l/m 2 min 0 min 855 W/m 19,3 km/h (3 Bft) 95,74 %
21.05.2023 14:20 23,3 C 28,3 C 18,3 C 68 % 1015,4 hPa 0,0 l/m 2 min 0 min 895 W/m 19,3 km/h (3 Bft) 91,49 %
21.05.2023 14:22 23,3 C 28,9 C 18,3 C 68 % 1015,4 hPa 0,0 l/m 2 min 0 min 895 W/m 16,1 km/h (3 Bft) 93,62 %
21.05.2023 14:24 23,4 C 30,0 C 18,9 C 68 % 1015,3 hPa 0,0 l/m 2 min 0 min 886 W/m 16,1 km/h (3 Bft) 95,65 %
21.05.2023 14:26 23,4 C 30,0 C 18,9 C 68 % 1015,4 hPa 0,0 l/m 2 min 0 min 880 W/m 22,5 km/h (4 Bft) 95,74 %
21.05.2023 14:28 23,5 C 30,0 C 18,9 C 67 % 1015,4 hPa 0,0 l/m 2 min 0 min 874 W/m 9,7 km/h (2 Bft) 95,74 %
21.05.2023 14:30 23,6 C 29,4 C 18,9 C 67 % 1015,3 hPa 0,0 l/m 2 min 0 min 875 W/m 16,1 km/h (3 Bft) 95,74 %
21.05.2023 14:32 23,7 C 30,0 C 18,9 C 68 % 1015,3 hPa 0,0 l/m 2 min 0 min 869 W/m 12,9 km/h (3 Bft) 97,87 %
21.05.2023 14:34 23,8 C 30,0 C 18,9 C 67 % 1015,3 hPa 0,0 l/m 2 min 0 min 866 W/m 16,1 km/h (3 Bft) 95,74 %
21.05.2023 14:36 23,8 C 29,4 C 18,9 C 68 % 1015,3 hPa 0,0 l/m 2 min 0 min 856 W/m 19,3 km/h (3 Bft) 97,87 %
21.05.2023 14:38 23,9 C 30,6 C 18,9 C 67 % 1015,3 hPa 0,0 l/m 2 min 0 min 861 W/m 12,9 km/h (3 Bft) 97,83 %
21.05.2023 14:40 23,9 C 30,6 C 18,9 C 66 % 1015,3 hPa 0,0 l/m 2 min 0 min 824 W/m 12,9 km/h (3 Bft) 93,62 %
21.05.2023 14:42 24,1 C 30,0 C 18,9 C 67 % 1015,3 hPa 0,0 l/m 2 min 0 min 790 W/m 12,9 km/h (3 Bft) 97,87 %
21.05.2023 14:44 24,0 C 29,4 C 18,9 C 66 % 1015,3 hPa 0,0 l/m 2 min 0 min 814 W/m 12,9 km/h (3 Bft) 97,87 %
21.05.2023 14:46 24,0 C 29,4 C 18,9 C 66 % 1015,2 hPa 0,0 l/m 2 min 0 min 845 W/m 9,7 km/h (2 Bft) 100,00 %
21.05.2023 14:48 24,1 C 30,6 C 18,9 C 67 % 1015,2 hPa 0,0 l/m 2 min 0 min 827 W/m 12,9 km/h (3 Bft) 100,00 %
21.05.2023 14:50 24,1 C 29,4 C 18,9 C 66 % 1015,2 hPa 0,0 l/m 2 min 0 min 805 W/m 19,3 km/h (3 Bft) 100,00 %
21.05.2023 14:52 24,1 C 28,9 C 18,9 C 66 % 1015,2 hPa 0,0 l/m 2 min 0 min 766 W/m 19,3 km/h (3 Bft) 100,00 %
21.05.2023 14:54 24,0 C 28,3 C 18,9 C 66 % 1015,2 hPa 0,0 l/m 2 min 0 min 776 W/m 19,3 km/h (3 Bft) 100,00 %
21.05.2023 14:56 24,0 C 28,9 C 18,9 C 66 % 1015,2 hPa 0,0 l/m 2 min 0 min 811 W/m 12,9 km/h (3 Bft) 97,87 %
21.05.2023 14:58 24,0 C 28,9 C 18,9 C 66 % 1015,2 hPa 0,0 l/m 2 min 0 min 847 W/m 16,1 km/h (3 Bft) 100,00 %
21.05.2023 15:00 24,1 C 29,4 C 18,9 C 67 % 1015,1 hPa 0,0 l/m 2 min 0 min 842 W/m 12,9 km/h (3 Bft) 100,00 %
21.05.2023 15:02 24,1 C 28,9 C 18,9 C 66 % 1015,1 hPa 0,0 l/m 2 min 0 min 832 W/m 9,7 km/h (2 Bft) 100,00 %
21.05.2023 15:04 24,2 C 28,9 C 18,9 C 66 % 1015,1 hPa 0,0 l/m 2 min 0 min 835 W/m 19,3 km/h (3 Bft) 100,00 %
21.05.2023 15:05 24,2 C 28,9 C 18,9 C 67 % 1015,1 hPa 0,0 l/m 1 min 0 min 833 W/m 19,3 km/h (3 Bft) 100,00 %
21.05.2023 15:08 24,3 C 30,0 C 19,4 C 67 % 1015,1 hPa 0,0 l/m 3 min 0 min 839 W/m 9,7 km/h (2 Bft) 100,00 %
21.05.2023 15:10 24,4 C 31,1 C 19,4 C 66 % 1015,1 hPa 0,0 l/m 2 min 0 min 845 W/m 12,9 km/h (3 Bft) 93,48 %
21.05.2023 15:12 24,4 C 30,6 C 19,4 C 66 % 1015,1 hPa 0,0 l/m 2 min 0 min 831 W/m 12,9 km/h (3 Bft) 95,74 %
21.05.2023 15:14 24,4 C 30,0 C 19,4 C 66 % 1015,1 hPa 0,0 l/m 2 min 0 min 778 W/m 12,9 km/h (3 Bft) 100,00 %
21.05.2023 15:16 24,5 C 30,0 C 19,4 C 65 % 1015,1 hPa 0,0 l/m 2 min 0 min 765 W/m 6,4 km/h (2 Bft) 97,87 %
21.05.2023 15:18 24,6 C 30,0 C 19,4 C 65 % 1015,2 hPa 0,0 l/m 2 min 0 min 838 W/m 12,9 km/h (3 Bft) 100,00 %
21.05.2023 15:20 24,6 C 30,6 C 19,4 C 65 % 1015,1 hPa 0,0 l/m 2 min 0 min 836 W/m 12,9 km/h (3 Bft) 100,00 %
21.05.2023 15:22 24,6 C 31,1 C 19,4 C 65 % 1015,1 hPa 0,0 l/m 2 min 0 min 834 W/m 9,7 km/h (2 Bft) 100,00 %
21.05.2023 15:24 24,6 C 30,0 C 19,4 C 66 % 1015,1 hPa 0,0 l/m 2 min 0 min 832 W/m 16,1 km/h (3 Bft) 100,00 %
21.05.2023 15:26 24,6 C 29,4 C 19,4 C 65 % 1015,1 hPa 0,0 l/m 2 min 0 min 830 W/m 16,1 km/h (3 Bft) 100,00 %
21.05.2023 15:28 24,6 C 29,4 C 19,4 C 65 % 1015,0 hPa 0,0 l/m 2 min 0 min 829 W/m 19,3 km/h (3 Bft) 100,00 %
21.05.2023 15:30 24,6 C 29,4 C 19,4 C 65 % 1015,0 hPa 0,0 l/m 2 min 0 min 825 W/m 6,4 km/h (2 Bft) 97,87 %
21.05.2023 15:32 24,7 C 30,0 C 20,0 C 65 % 1015,0 hPa 0,0 l/m 2 min 0 min 823 W/m 16,1 km/h (3 Bft) 100,00 %
21.05.2023 15:34 24,8 C 30,6 C 20,0 C 65 % 1014,9 hPa 0,0 l/m 2 min 0 min 805 W/m 9,7 km/h (2 Bft) 100,00 %
21.05.2023 15:36 24,8 C 30,0 C 20,0 C 64 % 1014,9 hPa 0,0 l/m 2 min 0 min 804 W/m 9,7 km/h (2 Bft) 100,00 %
21.05.2023 15:38 24,9 C 30,6 C 20,0 C 65 % 1014,9 hPa 0,0 l/m 2 min 0 min 811 W/m 9,7 km/h (2 Bft) 97,87 %
21.05.2023 15:40 25,1 C 30,0 C 20,0 C 64 % 1014,9 hPa 0,0 l/m 2 min 0 min 804 W/m 22,5 km/h (4 Bft) 100,00 %
21.05.2023 15:42 25,1 C 30,0 C 20,0 C 64 % 1015,0 hPa 0,0 l/m 2 min 0 min 808 W/m 9,7 km/h (2 Bft) 100,00 %
21.05.2023 15:44 25,2 C 29,4 C 20,0 C 64 % 1014,9 hPa 0,0 l/m 2 min 0 min 791 W/m 12,9 km/h (3 Bft) 100,00 %
21.05.2023 15:46 25,2 C 28,3 C 19,4 C 63 % 1014,9 hPa 0,0 l/m 2 min 0 min 786 W/m 16,1 km/h (3 Bft) 97,87 %
21.05.2023 15:48 25,2 C 28,9 C 19,4 C 63 % 1014,9 hPa 0,0 l/m 2 min 0 min 760 W/m 12,9 km/h (3 Bft) 100,00 %
21.05.2023 15:50 25,2 C 28,9 C 20,0 C 63 % 1014,9 hPa 0,0 l/m 2 min 0 min 753 W/m 12,9 km/h (3 Bft) 97,87 %
21.05.2023 15:52 25,2 C 28,9 C 20,0 C 63 % 1015,0 hPa 0,0 l/m 2 min 0 min 733 W/m 16,1 km/h (3 Bft) 93,62 %
21.05.2023 15:54 25,2 C 29,4 C 20,0 C 63 % 1014,9 hPa 0,0 l/m 2 min 0 min 771 W/m 12,9 km/h (3 Bft) 100,00 %
21.05.2023 15:56 25,3 C 29,4 C 20,0 C 63 % 1015,0 hPa 0,0 l/m 2 min 0 min 766 W/m 6,4 km/h (2 Bft) 97,87 %
21.05.2023 15:58 25,4 C 30,6 C 20,0 C 64 % 1014,9 hPa 0,0 l/m 2 min 0 min 763 W/m 6,4 km/h (2 Bft) 97,87 %
21.05.2023 16:00 25,6 C 30,6 C 20,6 C 63 % 1014,9 hPa 0,0 l/m 2 min 0 min 753 W/m 9,7 km/h (2 Bft) 97,87 %
21.05.2023 16:02 25,6 C 29,4 C 20,0 C 62 % 1014,9 hPa 0,0 l/m 2 min 0 min 735 W/m 9,7 km/h (2 Bft) 95,65 %
21.05.2023 16:04 25,6 C 30,0 C 20,0 C 62 % 1014,8 hPa 0,0 l/m 2 min 0 min 746 W/m 12,9 km/h (3 Bft) 100,00 %
21.05.2023 16:06 25,6 C 29,4 C 20,6 C 63 % 1014,8 hPa 0,0 l/m 2 min 0 min 742 W/m 12,9 km/h (3 Bft) 94,92 %
21.05.2023 16:08 25,6 C 29,4 C 20,6 C 62 % 1014,8 hPa 0,0 l/m 2 min 0 min 749 W/m 12,9 km/h (3 Bft) 97,14 %
21.05.2023 16:10 25,6 C 29,4 C 20,6 C 62 % 1014,8 hPa 0,0 l/m 2 min 0 min 743 W/m 9,7 km/h (2 Bft) 95,74 %
21.05.2023 16:12 25,6 C 29,4 C 20,6 C 62 % 1014,8 hPa 0,0 l/m 2 min 0 min 740 W/m 16,1 km/h (3 Bft) 95,74 %
21.05.2023 16:14 25,6 C 30,0 C 20,6 C 62 % 1014,8 hPa 0,0 l/m 2 min 0 min 725 W/m 6,4 km/h (2 Bft) 97,87 %
21.05.2023 16:16 25,7 C 30,0 C 20,6 C 62 % 1014,8 hPa 0,0 l/m 2 min 0 min 721 W/m 12,9 km/h (3 Bft) 95,65 %
21.05.2023 16:18 25,6 C 30,0 C 20,6 C 62 % 1014,8 hPa 0,0 l/m 2 min 0 min 719 W/m 12,9 km/h (3 Bft) 97,87 %
21.05.2023 16:20 25,6 C 29,4 C 20,6 C 62 % 1014,7 hPa 0,0 l/m 2 min 0 min 706 W/m 16,1 km/h (3 Bft) 97,87 %
21.05.2023 16:22 25,7 C 29,4 C 20,6 C 63 % 1014,7 hPa 0,0 l/m 2 min 0 min 699 W/m 12,9 km/h (3 Bft) 97,87 %
21.05.2023 16:24 25,7 C 29,4 C 20,6 C 63 % 1014,9 hPa 0,0 l/m 2 min 0 min 689 W/m 12,9 km/h (3 Bft) 95,74 %
21.05.2023 16:26 25,8 C 29,4 C 20,6 C 62 % 1014,8 hPa 0,0 l/m 2 min 0 min 682 W/m 6,4 km/h (2 Bft) 93,62 %
21.05.2023 16:28 25,8 C 30,0 C 20,6 C 62 % 1014,8 hPa 0,0 l/m 2 min 0 min 708 W/m 12,9 km/h (3 Bft) 97,83 %
21.05.2023 16:30 25,8 C 30,6 C 20,6 C 62 % 1014,8 hPa 0,0 l/m 2 min 0 min 699 W/m 16,1 km/h (3 Bft) 97,87 %
21.05.2023 16:32 25,9 C 30,6 C 21,1 C 63 % 1014,8 hPa 0,0 l/m 2 min 0 min 688 W/m 16,1 km/h (3 Bft) 95,74 %
21.05.2023 16:34 25,8 C 30,6 C 21,1 C 62 % 1014,9 hPa 0,0 l/m 2 min 0 min 681 W/m 12,9 km/h (3 Bft) 95,74 %
21.05.2023 16:36 25,9 C 30,6 C 21,1 C 61 % 1014,8 hPa 0,0 l/m 2 min 0 min 678 W/m 6,4 km/h (2 Bft) 95,74 %
21.05.2023 16:38 26,0 C 31,1 C 21,1 C 62 % 1014,8 hPa 0,0 l/m 2 min 0 min 667 W/m 6,4 km/h (2 Bft) 93,62 %
21.05.2023 16:40 26,1 C 30,6 C 21,1 C 62 % 1014,8 hPa 0,0 l/m 2 min 0 min 648 W/m 12,9 km/h (3 Bft) 95,74 %
21.05.2023 16:42 26,1 C 30,0 C 20,6 C 62 % 1014,7 hPa 0,0 l/m 2 min 0 min 635 W/m 12,9 km/h (3 Bft) 93,48 %
21.05.2023 16:44 26,0 C 29,4 C 20,6 C 61 % 1014,7 hPa 0,0 l/m 2 min 0 min 642 W/m 16,1 km/h (3 Bft) 95,74 %
21.05.2023 16:46 25,9 C 29,4 C 21,1 C 62 % 1014,7 hPa 0,0 l/m 2 min 0 min 628 W/m 16,1 km/h (3 Bft) 95,74 %
21.05.2023 16:48 25,9 C 28,9 C 20,6 C 62 % 1014,6 hPa 0,0 l/m 2 min 0 min 619 W/m 16,1 km/h (3 Bft) 95,74 %
21.05.2023 16:50 25,9 C 28,9 C 20,6 C 63 % 1014,6 hPa 0,0 l/m 2 min 0 min 618 W/m 16,1 km/h (3 Bft) 93,62 %
21.05.2023 16:52 25,9 C 29,4 C 21,1 C 62 % 1014,6 hPa 0,0 l/m 2 min 0 min 610 W/m 12,9 km/h (3 Bft) 95,74 %
21.05.2023 16:54 25,9 C 29,4 C 21,1 C 62 % 1014,6 hPa 0,0 l/m 2 min 0 min 595 W/m 9,7 km/h (2 Bft) 93,48 %
21.05.2023 16:56 25,8 C 28,9 C 20,6 C 62 % 1014,6 hPa 0,0 l/m 2 min 0 min 543 W/m 9,7 km/h (2 Bft) 93,62 %
21.05.2023 16:58 25,9 C 28,9 C 20,6 C 62 % 1014,6 hPa 0,0 l/m 2 min 0 min 544 W/m 9,7 km/h (2 Bft) 95,74 %
21.05.2023 17:00 25,9 C 28,9 C 21,1 C 63 % 1014,5 hPa 0,0 l/m 2 min 0 min 555 W/m 16,1 km/h (3 Bft) 95,74 %
21.05.2023 17:02 25,8 C 29,4 C 21,1 C 62 % 1014,5 hPa 0,0 l/m 2 min 0 min 594 W/m 12,9 km/h (3 Bft) 95,74 %
21.05.2023 17:04 25,8 C 30,0 C 21,7 C 63 % 1014,5 hPa 0,0 l/m 2 min 0 min 601 W/m 9,7 km/h (2 Bft) 95,24 %
21.05.2023 17:06 25,9 C 30,0 C 21,7 C 63 % 1014,5 hPa 0,0 l/m 2 min 0 min 594 W/m 16,1 km/h (3 Bft) 95,74 %
21.05.2023 17:08 25,9 C 30,0 C 21,7 C 62 % 1014,5 hPa 0,0 l/m 2 min 0 min 595 W/m 12,9 km/h (3 Bft) 95,74 %
21.05.2023 17:10 26,1 C 30,6 C 21,7 C 63 % 1014,5 hPa 0,0 l/m 2 min 0 min 598 W/m 16,1 km/h (3 Bft) 95,74 %
21.05.2023 17:12 26,1 C 30,0 C 21,7 C 62 % 1014,5 hPa 0,0 l/m 2 min 0 min 597 W/m 16,1 km/h (3 Bft) 94,34 %
21.05.2023 17:14 26,0 C 29,4 C 21,7 C 62 % 1014,4 hPa 0,0 l/m 2 min 0 min 582 W/m 12,9 km/h (3 Bft) 93,62 %
21.05.2023 17:16 25,9 C 29,4 C 21,7 C 62 % 1014,4 hPa 0,0 l/m 2 min 0 min 563 W/m 9,7 km/h (2 Bft) 97,87 %
21.05.2023 17:18 25,9 C 29,4 C 21,7 C 62 % 1014,5 hPa 0,0 l/m 2 min 0 min 531 W/m 12,9 km/h (3 Bft) 97,87 %
21.05.2023 17:20 25,9 C 28,3 C 21,7 C 61 % 1014,4 hPa 0,0 l/m 0 min 0 min 283 W/m 22,5 km/h (4 Bft) 100,00 %
21.05.2023 17:22 25,8 C 28,3 C 21,1 C 62 % 1014,4 hPa 0,0 l/m 2 min 0 min 466 W/m 12,9 km/h (3 Bft) 100,00 %
21.05.2023 17:24 25,7 C 28,9 C 21,1 C 62 % 1014,4 hPa 0,0 l/m 2 min 0 min 554 W/m 6,4 km/h (2 Bft) 100,00 %
21.05.2023 17:26 25,8 C 29,4 C 21,7 C 63 % 1014,4 hPa 0,0 l/m 2 min 0 min 553 W/m 12,9 km/h (3 Bft) 100,00 %
21.05.2023 17:28 25,8 C 30,0 C 21,7 C 63 % 1014,4 hPa 0,0 l/m 2 min 0 min 546 W/m 12,9 km/h (3 Bft) 100,00 %
21.05.2023 17:30 25,9 C 30,0 C 22,2 C 63 % 1014,4 hPa 0,0 l/m 2 min 0 min 543 W/m 19,3 km/h (3 Bft) 95,74 %
21.05.2023 17:32 25,9 C 30,0 C 21,7 C 63 % 1014,4 hPa 0,0 l/m 2 min 0 min 546 W/m 16,1 km/h (3 Bft) 97,87 %
21.05.2023 17:34 25,9 C 29,4 C 21,7 C 62 % 1014,3 hPa 0,0 l/m 2 min 0 min 539 W/m 19,3 km/h (3 Bft) 100,00 %
21.05.2023 17:36 26,0 C 30,0 C 21,7 C 62 % 1014,4 hPa 0,0 l/m 2 min 0 min 516 W/m 9,7 km/h (2 Bft) 97,87 %
21.05.2023 17:38 26,1 C 29,4 C 21,7 C 61 % 1014,3 hPa 0,0 l/m 2 min 0 min 466 W/m 22,5 km/h (4 Bft) 100,00 %
21.05.2023 17:40 26,0 C 28,9 C 21,7 C 61 % 1014,3 hPa 0,0 l/m 2 min 0 min 447 W/m 12,9 km/h (3 Bft) 100,00 %
21.05.2023 17:42 25,9 C 28,9 C 21,7 C 62 % 1014,3 hPa 0,0 l/m 2 min 0 min 428 W/m 9,7 km/h (2 Bft) 97,87 %
21.05.2023 17:44 25,8 C 28,9 C 21,7 C 62 % 1014,3 hPa 0,0 l/m 2 min 0 min 381 W/m 16,1 km/h (3 Bft) 100,00 %
21.05.2023 17:46 25,7 C 28,9 C 21,7 C 62 % 1014,3 hPa 0,0 l/m 2 min 0 min 340 W/m 9,7 km/h (2 Bft) 100,00 %
21.05.2023 17:48 25,6 C 27,8 C 21,1 C 62 % 1014,2 hPa 0,0 l/m 2 min 0 min 274 W/m 16,1 km/h (3 Bft) 97,87 %
21.05.2023 17:50 25,5 C 26,7 C 21,1 C 63 % 1014,2 hPa 0,0 l/m 2 min 0 min 254 W/m 16,1 km/h (3 Bft) 97,87 %
21.05.2023 17:52 25,3 C 26,1 C 20,6 C 63 % 1014,3 hPa 0,0 l/m 2 min 0 min 265 W/m 12,9 km/h (3 Bft) 93,62 %
21.05.2023 17:54 25,2 C 26,1 C 20,6 C 63 % 1014,2 hPa 0,0 l/m 2 min 0 min 271 W/m 6,4 km/h (2 Bft) 97,87 %
21.05.2023 17:56 25,2 C 26,1 C 20,6 C 64 % 1014,3 hPa 0,0 l/m 2 min 0 min 246 W/m 6,4 km/h (2 Bft) 100,00 %
21.05.2023 17:58 25,1 C 25,6 C 20,6 C 64 % 1014,3 hPa 0,0 l/m 0 min 0 min 209 W/m 16,1 km/h (3 Bft) 97,67 %
21.05.2023 18:00 24,9 C 25,0 C 20,0 C 63 % 1014,3 hPa 0,0 l/m 0 min 0 min 191 W/m 12,9 km/h (3 Bft) 97,87 %
21.05.2023 18:02 24,8 C 25,0 C 20,0 C 64 % 1014,3 hPa 0,0 l/m 0 min 0 min 190 W/m 6,4 km/h (2 Bft) 97,87 %
21.05.2023 18:04 24,7 C 25,0 C 20,0 C 64 % 1014,3 hPa 0,0 l/m 0 min 0 min 201 W/m 12,9 km/h (3 Bft) 97,92 %
21.05.2023 18:07 24,6 C 24,4 C 20,0 C 65 % 1014,3 hPa 0,0 l/m 0 min 0 min 209 W/m 12,9 km/h (3 Bft) 97,92 %
21.05.2023 18:08 24,6 C 24,4 C 20,0 C 65 % 1014,3 hPa 0,0 l/m 0 min 0 min 206 W/m 12,9 km/h (3 Bft) 97,78 %
21.05.2023 18:10 24,6 C 25,0 C 20,0 C 66 % 1014,3 hPa 0,0 l/m 0 min 0 min 214 W/m 6,4 km/h (2 Bft) 97,87 %
21.05.2023 18:12 24,6 C 25,0 C 20,0 C 65 % 1014,3 hPa 0,0 l/m 2 min 0 min 239 W/m 6,4 km/h (2 Bft) 95,74 %
21.05.2023 18:14 24,6 C 26,1 C 20,0 C 65 % 1014,3 hPa 0,0 l/m 2 min 0 min 325 W/m 6,4 km/h (2 Bft) 97,83 %
21.05.2023 18:16 24,6 C 26,7 C 20,6 C 66 % 1014,3 hPa 0,0 l/m 2 min 0 min 366 W/m 9,7 km/h (2 Bft) 97,87 %
21.05.2023 18:18 24,6 C 27,2 C 20,6 C 65 % 1014,4 hPa 0,0 l/m 2 min 0 min 392 W/m 16,1 km/h (3 Bft) 97,87 %
21.05.2023 18:20 24,8 C 27,8 C 21,1 C 65 % 1014,3 hPa 0,0 l/m 2 min 0 min 379 W/m 6,4 km/h (2 Bft) 97,87 %
21.05.2023 18:22 24,8 C 27,8 C 21,1 C 65 % 1014,3 hPa 0,0 l/m 2 min 0 min 321 W/m 9,7 km/h (2 Bft) 97,87 %
21.05.2023 18:24 24,9 C 27,2 C 20,6 C 65 % 1014,3 hPa 0,0 l/m 2 min 0 min 306 W/m 6,4 km/h (2 Bft) 100,00 %
21.05.2023 18:26 24,9 C 27,8 C 20,6 C 65 % 1014,3 hPa 0,0 l/m 2 min 0 min 377 W/m 6,4 km/h (2 Bft) 97,87 %
21.05.2023 18:28 24,9 C 27,8 C 20,6 C 65 % 1014,3 hPa 0,0 l/m 2 min 0 min 394 W/m 9,7 km/h (2 Bft) 100,00 %
21.05.2023 18:30 25,1 C 28,3 C 21,1 C 65 % 1014,3 hPa 0,0 l/m 2 min 0 min 413 W/m 12,9 km/h (3 Bft) 100,00 %
21.05.2023 18:32 25,1 C 27,8 C 20,6 C 64 % 1014,3 hPa 0,0 l/m 2 min 0 min 429 W/m 16,1 km/h (3 Bft) 100,00 %
21.05.2023 18:34 25,0 C 27,8 C 20,6 C 64 % 1014,2 hPa 0,0 l/m 2 min 0 min 433 W/m 6,4 km/h (2 Bft) 98,00 %
21.05.2023 18:36 25,1 C 27,8 C 20,6 C 65 % 1014,3 hPa 0,0 l/m 2 min 0 min 376 W/m 6,4 km/h (2 Bft) 100,00 %
21.05.2023 18:38 25,1 C 27,8 C 21,1 C 65 % 1014,3 hPa 0,0 l/m 2 min 0 min 337 W/m 9,7 km/h (2 Bft) 100,00 %
21.05.2023 18:40 25,2 C 28,3 C 21,1 C 65 % 1014,2 hPa 0,0 l/m 2 min 0 min 324 W/m 6,4 km/h (2 Bft) 100,00 %
21.05.2023 18:42 25,2 C 27,8 C 21,1 C 64 % 1014,2 hPa 0,0 l/m 2 min 0 min 311 W/m 12,9 km/h (3 Bft) 100,00 %
21.05.2023 18:44 25,2 C 27,2 C 21,1 C 65 % 1014,2 hPa 0,0 l/m 2 min 0 min 310 W/m 12,9 km/h (3 Bft) 100,00 %
21.05.2023 18:46 25,2 C 27,8 C 21,1 C 65 % 1014,1 hPa 0,0 l/m 2 min 0 min 310 W/m 9,7 km/h (2 Bft) 100,00 %
21.05.2023 18:48 25,2 C 27,2 C 21,1 C 64 % 1014,1 hPa 0,0 l/m 2 min 0 min 265 W/m 12,9 km/h (3 Bft) 100,00 %
21.05.2023 18:50 25,2 C 26,7 C 20,6 C 64 % 1014,1 hPa 0,0 l/m 2 min 0 min 232 W/m 9,7 km/h (2 Bft) 100,00 %
21.05.2023 18:52 25,1 C 26,1 C 20,6 C 64 % 1014,2 hPa 0,0 l/m 2 min 0 min 213 W/m 9,7 km/h (2 Bft) 100,00 %
21.05.2023 18:54 25,1 C 26,1 C 20,6 C 64 % 1014,2 hPa 0,0 l/m 2 min 0 min 200 W/m 6,4 km/h (2 Bft) 100,00 %
21.05.2023 18:56 25,1 C 25,6 C 20,6 C 65 % 1014,2 hPa 0,0 l/m 2 min 0 min 193 W/m 9,7 km/h (2 Bft) 97,87 %
21.05.2023 18:58 25,0 C 25,6 C 20,0 C 65 % 1014,3 hPa 0,0 l/m 2 min 0 min 190 W/m 6,4 km/h (2 Bft) 96,55 %
21.05.2023 19:00 24,9 C 25,6 C 20,0 C 65 % 1014,2 hPa 0,0 l/m 2 min 0 min 196 W/m 6,4 km/h (2 Bft) 100,00 %
21.05.2023 19:02 24,9 C 25,6 C 20,0 C 65 % 1014,3 hPa 0,0 l/m 2 min 0 min 194 W/m 6,4 km/h (2 Bft) 97,87 %
21.05.2023 19:04 24,9 C 25,6 C 20,0 C 65 % 1014,2 hPa 0,0 l/m 2 min 0 min 195 W/m 12,9 km/h (3 Bft) 100,00 %
21.05.2023 19:06 24,8 C 25,6 C 20,0 C 66 % 1014,2 hPa 0,0 l/m 2 min 0 min 195 W/m 12,9 km/h (3 Bft) 97,83 %
21.05.2023 19:08 24,7 C 25,6 C 20,0 C 66 % 1014,2 hPa 0,0 l/m 2 min 0 min 186 W/m 6,4 km/h (2 Bft) 97,22 %
21.05.2023 19:10 24,6 C 25,6 C 20,0 C 66 % 1014,2 hPa 0,0 l/m 2 min 0 min 171 W/m 9,7 km/h (2 Bft) 97,83 %
21.05.2023 19:12 24,6 C 25,0 C 20,0 C 66 % 1014,2 hPa 0,0 l/m 2 min 0 min 160 W/m 6,4 km/h (2 Bft) 95,74 %
21.05.2023 19:14 24,4 C 25,0 C 19,4 C 66 % 1014,3 hPa 0,0 l/m 0 min 0 min 146 W/m 9,7 km/h (2 Bft) 97,87 %
21.05.2023 19:16 24,3 C 23,9 C 19,4 C 66 % 1014,3 hPa 0,0 l/m 0 min 0 min 138 W/m 12,9 km/h (3 Bft) 97,87 %
21.05.2023 19:18 24,2 C 23,9 C 19,4 C 67 % 1014,4 hPa 0,0 l/m 0 min 0 min 140 W/m 9,7 km/h (2 Bft) 95,74 %
21.05.2023 19:20 24,1 C 23,9 C 19,4 C 67 % 1014,3 hPa 0,0 l/m 0 min 0 min 130 W/m 6,4 km/h (2 Bft) 97,87 %
21.05.2023 19:22 24,1 C 23,3 C 18,9 C 67 % 1014,3 hPa 0,0 l/m 0 min 0 min 128 W/m 9,7 km/h (2 Bft) 97,87 %
21.05.2023 19:24 24,0 C 23,3 C 18,9 C 68 % 1014,4 hPa 0,0 l/m 0 min 0 min 129 W/m 6,4 km/h (2 Bft) 97,83 %
21.05.2023 19:26 23,9 C 23,3 C 18,9 C 68 % 1014,4 hPa 0,0 l/m 2 min 0 min 145 W/m 6,4 km/h (2 Bft) 95,74 %
21.05.2023 19:28 23,9 C 23,3 C 18,9 C 68 % 1014,4 hPa 0,0 l/m 2 min 0 min 143 W/m 9,7 km/h (2 Bft) 97,87 %
21.05.2023 19:30 23,9 C 23,3 C 18,9 C 69 % 1014,4 hPa 0,0 l/m 2 min 0 min 132 W/m 6,4 km/h (2 Bft) 95,74 %
21.05.2023 19:32 23,9 C 23,3 C 18,9 C 68 % 1014,4 hPa 0,0 l/m 2 min 0 min 141 W/m 6,4 km/h (2 Bft) 97,87 %
21.05.2023 19:34 23,8 C 23,3 C 18,9 C 69 % 1014,3 hPa 0,0 l/m 2 min 0 min 139 W/m 12,9 km/h (3 Bft) 97,87 %
21.05.2023 19:36 23,8 C 23,3 C 18,9 C 69 % 1014,4 hPa 0,0 l/m 2 min 0 min 140 W/m 9,7 km/h (2 Bft) 93,48 %
21.05.2023 19:38 23,8 C 23,3 C 18,9 C 69 % 1014,3 hPa 0,0 l/m 2 min 0 min 136 W/m 6,4 km/h (2 Bft) 97,87 %
21.05.2023 19:40 23,8 C 23,3 C 18,9 C 69 % 1014,3 hPa 0,0 l/m 2 min 0 min 134 W/m 12,9 km/h (3 Bft) 95,74 %
21.05.2023 19:42 23,7 C 23,3 C 18,9 C 69 % 1014,3 hPa 0,0 l/m 2 min 0 min 130 W/m 12,9 km/h (3 Bft) 97,87 %
21.05.2023 19:44 23,7 C 23,3 C 18,9 C 69 % 1014,3 hPa 0,0 l/m 2 min 0 min 127 W/m 9,7 km/h (2 Bft) 97,87 %
21.05.2023 19:46 23,7 C 23,3 C 18,9 C 69 % 1014,4 hPa 0,0 l/m 2 min 0 min 126 W/m 12,9 km/h (3 Bft) 93,62 %
21.05.2023 19:48 23,7 C 23,3 C 18,9 C 69 % 1014,4 hPa 0,0 l/m 2 min 0 min 126 W/m 9,7 km/h (2 Bft) 95,74 %
21.05.2023 19:50 23,7 C 23,3 C 18,9 C 70 % 1014,4 hPa 0,0 l/m 2 min 0 min 128 W/m 9,7 km/h (2 Bft) 93,48 %
21.05.2023 19:52 23,7 C 23,3 C 18,9 C 70 % 1014,4 hPa 0,0 l/m 2 min 0 min 128 W/m 9,7 km/h (2 Bft) 93,62 %
21.05.2023 19:54 23,7 C 23,3 C 18,9 C 69 % 1014,5 hPa 0,0 l/m 2 min 0 min 124 W/m 6,4 km/h (2 Bft) 93,62 %
21.05.2023 19:56 23,6 C 23,3 C 18,9 C 69 % 1014,5 hPa 0,0 l/m 2 min 0 min 122 W/m 12,9 km/h (3 Bft) 95,74 %
21.05.2023 19:58 23,6 C 23,3 C 18,9 C 69 % 1014,5 hPa 0,0 l/m 2 min 0 min 118 W/m 6,4 km/h (2 Bft) 97,83 %
21.05.2023 20:00 23,6 C 23,3 C 18,9 C 69 % 1014,5 hPa 0,0 l/m 2 min 0 min 115 W/m 9,7 km/h (2 Bft) 95,74 %
21.05.2023 20:02 23,6 C 23,3 C 18,9 C 69 % 1014,5 hPa 0,0 l/m 2 min 0 min 112 W/m 6,4 km/h (2 Bft) 93,62 %
21.05.2023 20:04 23,6 C 23,3 C 18,9 C 70 % 1014,5 hPa 0,0 l/m 2 min 0 min 107 W/m 6,4 km/h (2 Bft) 93,75 %
21.05.2023 20:06 23,6 C 23,3 C 18,9 C 70 % 1014,5 hPa 0,0 l/m 2 min 0 min 105 W/m 9,7 km/h (2 Bft) 94,92 %
21.05.2023 20:08 23,6 C 23,3 C 18,9 C 70 % 1014,5 hPa 0,0 l/m 2 min 0 min 104 W/m 9,7 km/h (2 Bft) 97,14 %
21.05.2023 20:10 23,6 C 23,3 C 18,9 C 70 % 1014,5 hPa 0,0 l/m 2 min 0 min 104 W/m 6,4 km/h (2 Bft) 95,65 %
21.05.2023 20:12 23,6 C 23,3 C 18,9 C 70 % 1014,6 hPa 0,0 l/m 2 min 0 min 104 W/m 9,7 km/h (2 Bft) 93,62 %
21.05.2023 20:14 23,6 C 22,8 C 18,9 C 70 % 1014,6 hPa 0,0 l/m 2 min 0 min 103 W/m 9,7 km/h (2 Bft) 95,65 %
21.05.2023 20:16 23,5 C 22,8 C 18,9 C 70 % 1014,5 hPa 0,0 l/m 2 min 0 min 102 W/m 12,9 km/h (3 Bft) 95,74 %
21.05.2023 20:18 23,5 C 22,8 C 18,9 C 70 % 1014,5 hPa 0,0 l/m 2 min 0 min 100 W/m 9,7 km/h (2 Bft) 95,74 %
21.05.2023 20:20 23,4 C 22,8 C 18,9 C 70 % 1014,6 hPa 0,0 l/m 2 min 0 min 98 W/m 19,3 km/h (3 Bft) 95,74 %
21.05.2023 20:22 23,4 C 22,8 C 18,9 C 70 % 1014,5 hPa 0,0 l/m 2 min 0 min 94 W/m 12,9 km/h (3 Bft) 95,74 %
21.05.2023 20:24 23,4 C 22,8 C 18,9 C 70 % 1014,5 hPa 0,0 l/m 2 min 0 min 86 W/m 6,4 km/h (2 Bft) 97,87 %
21.05.2023 20:26 23,3 C 22,8 C 18,3 C 71 % 1014,5 hPa 0,0 l/m 2 min 0 min 77 W/m 12,9 km/h (3 Bft) 97,87 %
21.05.2023 20:28 23,3 C 22,2 C 18,3 C 71 % 1014,5 hPa 0,0 l/m 2 min 0 min 69 W/m 12,9 km/h (3 Bft) 95,65 %
21.05.2023 20:30 23,2 C 22,2 C 18,3 C 71 % 1014,5 hPa 0,0 l/m 2 min 0 min 59 W/m 6,4 km/h (2 Bft) 95,74 %
21.05.2023 20:32 23,2 C 22,2 C 18,3 C 71 % 1014,5 hPa 0,0 l/m 0 min 0 min 53 W/m 6,4 km/h (2 Bft) 97,87 %
21.05.2023 20:34 23,2 C 22,2 C 18,3 C 71 % 1014,5 hPa 0,0 l/m 0 min 0 min 47 W/m 6,4 km/h (2 Bft) 97,87 %
21.05.2023 20:36 23,1 C 22,2 C 18,3 C 72 % 1014,5 hPa 0,0 l/m 0 min 0 min 43 W/m 3,2 km/h (1 Bft) 97,87 %
21.05.2023 20:38 23,1 C 22,2 C 18,3 C 71 % 1014,5 hPa 0,0 l/m 0 min 0 min 40 W/m 9,7 km/h (2 Bft) 95,74 %
21.05.2023 20:40 23,1 C 22,2 C 18,3 C 72 % 1014,5 hPa 0,0 l/m 0 min 0 min 35 W/m 9,7 km/h (2 Bft) 100,00 %
21.05.2023 20:42 23,0 C 22,2 C 18,3 C 72 % 1014,5 hPa 0,0 l/m 0 min 0 min 33 W/m 6,4 km/h (2 Bft) 100,00 %
21.05.2023 20:44 23,0 C 22,2 C 18,3 C 72 % 1014,5 hPa 0,0 l/m 0 min 0 min 29 W/m 6,4 km/h (2 Bft) 97,87 %
21.05.2023 20:46 23,0 C 22,2 C 18,3 C 72 % 1014,5 hPa 0,0 l/m 0 min 0 min 26 W/m 6,4 km/h (2 Bft) 100,00 %
21.05.2023 20:48 22,9 C 21,7 C 17,8 C 72 % 1014,5 hPa 0,0 l/m 0 min 0 min 23 W/m 9,7 km/h (2 Bft) 100,00 %
21.05.2023 20:50 22,8 C 21,7 C 17,8 C 72 % 1014,5 hPa 0,0 l/m 0 min 0 min 21 W/m 16,1 km/h (3 Bft) 100,00 %
21.05.2023 20:52 22,8 C 21,7 C 17,8 C 72 % 1014,5 hPa 0,0 l/m 0 min 0 min 19 W/m 6,4 km/h (2 Bft) 100,00 %
21.05.2023 20:54 22,7 C 21,7 C 17,8 C 72 % 1014,5 hPa 0,0 l/m 0 min 0 min 17 W/m 3,2 km/h (1 Bft) 97,83 %
21.05.2023 20:56 22,7 C 21,7 C 17,8 C 72 % 1014,6 hPa 0,0 l/m 0 min 0 min 16 W/m 16,1 km/h (3 Bft) 100,00 %
21.05.2023 20:58 22,7 C 21,7 C 17,8 C 73 % 1014,6 hPa 0,0 l/m 0 min 0 min 14 W/m 12,9 km/h (3 Bft) 100,00 %
21.05.2023 21:00 22,6 C 21,7 C 17,8 C 72 % 1014,5 hPa 0,0 l/m 0 min 0 min 12 W/m 6,4 km/h (2 Bft) 97,87 %
21.05.2023 21:02 22,6 C 21,7 C 17,8 C 73 % 1014,6 hPa 0,0 l/m 0 min 0 min 11 W/m 6,4 km/h (2 Bft) 100,00 %
21.05.2023 21:04 22,5 C 21,1 C 17,8 C 73 % 1014,6 hPa 0,0 l/m 0 min 0 min 11 W/m 3,2 km/h (1 Bft) 97,96 %
21.05.2023 21:06 22,5 C 21,1 C 17,8 C 73 % 1014,6 hPa 0,0 l/m 0 min 0 min 11 W/m 6,4 km/h (2 Bft) 100,00 %
21.05.2023 21:08 22,4 C 21,1 C 17,8 C 73 % 1014,6 hPa 0,0 l/m 0 min 0 min 11 W/m 3,2 km/h (1 Bft) 100,00 %
21.05.2023 21:10 22,4 C 21,1 C 17,8 C 73 % 1014,6 hPa 0,0 l/m 0 min 0 min 9 W/m 12,9 km/h (3 Bft) 100,00 %
21.05.2023 21:12 22,4 C 21,1 C 17,8 C 73 % 1014,5 hPa 0,0 l/m 0 min 0 min 9 W/m 6,4 km/h (2 Bft) 100,00 %
21.05.2023 21:14 22,3 C 21,1 C 17,8 C 73 % 1014,6 hPa 0,0 l/m 0 min 0 min 9 W/m 3,2 km/h (1 Bft) 100,00 %
21.05.2023 21:16 22,3 C 21,1 C 17,8 C 74 % 1014,8 hPa 0,0 l/m 0 min 0 min 7 W/m 9,7 km/h (2 Bft) 100,00 %
21.05.2023 21:18 22,3 C 21,1 C 17,2 C 74 % 1014,8 hPa 0,0 l/m 0 min 0 min 7 W/m 6,4 km/h (2 Bft) 95,74 %
21.05.2023 21:20 22,3 C 21,1 C 17,2 C 74 % 1014,9 hPa 0,0 l/m 0 min 0 min 5 W/m 6,4 km/h (2 Bft) 100,00 %
21.05.2023 21:22 22,3 C 21,1 C 17,2 C 74 % 1014,9 hPa 0,0 l/m 0 min 0 min 5 W/m 6,4 km/h (2 Bft) 100,00 %
21.05.2023 21:24 22,2 C 21,1 C 17,2 C 74 % 1014,9 hPa 0,0 l/m 0 min 0 min 2 W/m 6,4 km/h (2 Bft) 100,00 %
21.05.2023 21:26 22,2 C 21,1 C 17,2 C 75 % 1015,0 hPa 0,0 l/m 0 min 0 min 0 W/m 6,4 km/h (2 Bft) 97,87 %
21.05.2023 21:28 22,1 C 20,6 C 17,2 C 75 % 1014,9 hPa 0,0 l/m 0 min 0 min 0 W/m 6,4 km/h (2 Bft) 100,00 %
21.05.2023 21:30 22,1 C 20,6 C 17,2 C 75 % 1014,9 hPa 0,0 l/m 0 min 0 min 0 W/m 6,4 km/h (2 Bft) 100,00 %
21.05.2023 21:32 22,1 C 20,6 C 16,7 C 76 % 1014,8 hPa 0,0 l/m 0 min 0 min 0 W/m 9,7 km/h (2 Bft) 100,00 %
21.05.2023 21:34 21,9 C 20,6 C 16,7 C 76 % 1014,8 hPa 0,0 l/m 0 min 2 min 0 W/m 6,4 km/h (2 Bft) 100,00 %
21.05.2023 21:36 21,9 C 20,6 C 16,7 C 77 % 1014,8 hPa 0,0 l/m 0 min 0 min 0 W/m 6,4 km/h (2 Bft) 100,00 %
21.05.2023 21:38 21,8 C 20,6 C 16,7 C 78 % 1014,9 hPa 0,0 l/m 0 min 0 min 0 W/m 6,4 km/h (2 Bft) 97,87 %
21.05.2023 21:40 21,8 C 20,6 C 16,1 C 78 % 1015,0 hPa 0,0 l/m 0 min 2 min 0 W/m 12,9 km/h (3 Bft) 100,00 %
21.05.2023 21:42 21,8 C 20,0 C 15,6 C 79 % 1015,0 hPa 0,0 l/m 0 min 2 min 0 W/m 3,2 km/h (1 Bft) 100,00 %
21.05.2023 21:44 21,7 C 20,0 C 15,0 C 81 % 1014,9 hPa 0,2 l/m 0 min 2 min 0 W/m 6,4 km/h (2 Bft) 97,87 %
21.05.2023 21:46 21,6 C 19,4 C 15,0 C 82 % 1014,9 hPa 0,0 l/m 0 min 2 min 0 W/m 3,2 km/h (1 Bft) 97,87 %
21.05.2023 21:48 21,5 C 19,4 C 14,4 C 83 % 1014,9 hPa 0,2 l/m 0 min 2 min 0 W/m 9,7 km/h (2 Bft) 93,48 %
21.05.2023 21:50 21,4 C 18,9 C 14,4 C 83 % 1014,8 hPa 0,0 l/m 0 min 2 min 0 W/m 12,9 km/h (3 Bft) 97,87 %
21.05.2023 21:52 21,2 C 18,9 C 14,4 C 84 % 1014,8 hPa 0,0 l/m 0 min 2 min 0 W/m 6,4 km/h (2 Bft) 93,62 %
21.05.2023 21:54 21,1 C 18,9 C 13,9 C 85 % 1014,8 hPa 0,0 l/m 0 min 2 min 0 W/m 6,4 km/h (2 Bft) 95,74 %
21.05.2023 21:56 21,1 C 18,9 C 13,9 C 85 % 1014,7 hPa 0,0 l/m 0 min 2 min 0 W/m 3,2 km/h (1 Bft) 93,62 %
21.05.2023 21:58 20,9 C 18,9 C 13,9 C 86 % 1014,7 hPa 0,0 l/m 0 min 0 min 0 W/m 3,2 km/h (1 Bft) 95,74 %
21.05.2023 22:00 20,9 C 18,9 C 13,9 C 86 % 1014,7 hPa 0,0 l/m 0 min 0 min 0 W/m 9,7 km/h (2 Bft) 95,74 %
21.05.2023 22:02 20,7 C 18,9 C 13,9 C 87 % 1014,7 hPa 0,0 l/m 0 min 0 min 0 W/m 12,9 km/h (3 Bft) 91,30 %
21.05.2023 22:04 20,6 C 18,3 C 13,9 C 87 % 1014,6 hPa 0,0 l/m 0 min 0 min 0 W/m 12,9 km/h (3 Bft) 91,84 %
21.05.2023 22:06 20,4 C 18,3 C 13,9 C 88 % 1014,6 hPa 0,0 l/m 0 min 0 min 0 W/m 6,4 km/h (2 Bft) 95,74 %
21.05.2023 22:08 20,3 C 18,3 C 13,9 C 88 % 1014,6 hPa 0,0 l/m 0 min 0 min 0 W/m 6,4 km/h (2 Bft) 93,62 %
21.05.2023 22:10 20,3 C 18,3 C 13,9 C 88 % 1014,5 hPa 0,0 l/m 0 min 0 min 0 W/m 6,4 km/h (2 Bft) 95,74 %
21.05.2023 22:12 20,2 C 18,3 C 13,9 C 88 % 1014,5 hPa 0,0 l/m 0 min 0 min 0 W/m 6,4 km/h (2 Bft) 95,65 %
21.05.2023 22:14 20,1 C 18,3 C 13,9 C 89 % 1014,6 hPa 0,0 l/m 0 min 0 min 0 W/m 12,9 km/h (3 Bft) 95,74 %
21.05.2023 22:16 20,0 C 18,3 C 13,9 C 89 % 1014,5 hPa 0,0 l/m 0 min 2 min 0 W/m 6,4 km/h (2 Bft) 95,74 %
21.05.2023 22:18 19,9 C 18,3 C 13,9 C 89 % 1014,5 hPa 0,0 l/m 0 min 0 min 0 W/m 9,7 km/h (2 Bft) 93,62 %
21.05.2023 22:20 19,8 C 18,3 C 13,9 C 90 % 1014,5 hPa 0,0 l/m 0 min 0 min 0 W/m 12,9 km/h (3 Bft) 95,74 %
21.05.2023 22:22 19,8 C 18,3 C 13,9 C 90 % 1014,6 hPa 0,0 l/m 0 min 0 min 0 W/m 3,2 km/h (1 Bft) 97,87 %
21.05.2023 22:24 19,7 C 18,3 C 13,9 C 90 % 1014,6 hPa 0,0 l/m 0 min 0 min 0 W/m 6,4 km/h (2 Bft) 95,74 %
21.05.2023 22:26 19,7 C 18,3 C 13,9 C 90 % 1014,6 hPa 0,0 l/m 0 min 0 min 0 W/m 9,7 km/h (2 Bft) 95,65 %
21.05.2023 22:28 19,6 C 18,3 C 13,9 C 90 % 1014,6 hPa 0,0 l/m 0 min 0 min 0 W/m 12,9 km/h (3 Bft) 97,87 %
21.05.2023 22:30 19,4 C 18,3 C 13,9 C 89 % 1014,5 hPa 0,0 l/m 0 min 0 min 0 W/m 12,9 km/h (3 Bft) 97,87 %
21.05.2023 22:32 19,4 C 18,3 C 13,9 C 89 % 1014,5 hPa 0,0 l/m 0 min 0 min 0 W/m 9,7 km/h (2 Bft) 100,00 %
21.05.2023 22:34 19,3 C 18,3 C 14,4 C 89 % 1014,5 hPa 0,0 l/m 0 min 0 min 0 W/m 3,2 km/h (1 Bft) 97,87 %
21.05.2023 22:36 19,3 C 18,3 C 14,4 C 89 % 1014,5 hPa 0,0 l/m 0 min 0 min 0 W/m 3,2 km/h (1 Bft) 100,00 %
21.05.2023 22:38 19,2 C 18,3 C 14,4 C 89 % 1014,4 hPa 0,0 l/m 0 min 0 min 0 W/m 3,2 km/h (1 Bft) 100,00 %
21.05.2023 22:40 19,2 C 18,3 C 14,4 C 89 % 1014,4 hPa 0,0 l/m 0 min 0 min 0 W/m 6,4 km/h (2 Bft) 97,87 %
21.05.2023 22:42 19,2 C 18,3 C 14,4 C 89 % 1014,4 hPa 0,0 l/m 0 min 0 min 0 W/m 6,4 km/h (2 Bft) 95,74 %
21.05.2023 22:44 19,1 C 18,3 C 14,4 C 89 % 1014,4 hPa 0,0 l/m 0 min 0 min 0 W/m 6,4 km/h (2 Bft) 97,78 %
21.05.2023 22:46 19,1 C 18,3 C 14,4 C 89 % 1014,3 hPa 0,0 l/m 0 min 0 min 0 W/m 9,7 km/h (2 Bft) 95,74 %
21.05.2023 22:48 19,1 C 17,8 C 14,4 C 89 % 1014,3 hPa 0,0 l/m 0 min 0 min 0 W/m 3,2 km/h (1 Bft) 97,87 %
21.05.2023 22:50 19,1 C 17,8 C 14,4 C 89 % 1014,3 hPa 0,0 l/m 0 min 0 min 0 W/m 6,4 km/h (2 Bft) 95,74 %
21.05.2023 22:52 19,1 C 17,8 C 14,4 C 90 % 1014,3 hPa 0,0 l/m 0 min 0 min 0 W/m 6,4 km/h (2 Bft) 97,83 %
21.05.2023 22:54 19,1 C 17,8 C 14,4 C 90 % 1014,3 hPa 0,0 l/m 0 min 0 min 0 W/m 6,4 km/h (2 Bft) 95,74 %
21.05.2023 22:56 19,1 C 17,8 C 14,4 C 90 % 1014,2 hPa 0,0 l/m 0 min 0 min 0 W/m 3,2 km/h (1 Bft) 95,74 %
21.05.2023 22:58 19,1 C 17,8 C 14,4 C 90 % 1014,2 hPa 0,0 l/m 0 min 0 min 0 W/m 0,0 km/h (0 Bft) 97,87 %
21.05.2023 23:00 19,1 C 17,8 C 14,4 C 90 % 1014,3 hPa 0,0 l/m 0 min 0 min 0 W/m 3,2 km/h (1 Bft) 95,74 %
21.05.2023 23:02 19,0 C 18,3 C 14,4 C 90 % 1014,3 hPa 0,0 l/m 0 min 0 min 0 W/m 9,7 km/h (2 Bft) 97,87 %
21.05.2023 23:04 19,0 C 18,3 C 14,4 C 90 % 1014,3 hPa 0,0 l/m 0 min 0 min 0 W/m 12,9 km/h (3 Bft) 97,62 %
21.05.2023 23:06 19,0 C 18,3 C 14,4 C 90 % 1014,3 hPa 0,0 l/m 0 min 0 min 0 W/m 6,4 km/h (2 Bft) 96,92 %
21.05.2023 23:08 19,0 C 18,3 C 14,4 C 90 % 1014,4 hPa 0,0 l/m 0 min 0 min 0 W/m 3,2 km/h (1 Bft) 97,14 %
21.05.2023 23:10 19,1 C 18,3 C 14,4 C 90 % 1014,4 hPa 0,0 l/m 0 min 0 min 0 W/m 12,9 km/h (3 Bft) 97,87 %
21.05.2023 23:12 19,0 C 18,3 C 14,4 C 90 % 1014,4 hPa 0,2 l/m 0 min 0 min 0 W/m 12,9 km/h (3 Bft) 97,87 %
21.05.2023 23:14 19,1 C 18,3 C 14,4 C 90 % 1014,4 hPa 0,0 l/m 0 min 0 min 0 W/m 6,4 km/h (2 Bft) 97,87 %
21.05.2023 23:16 19,1 C 18,3 C 14,4 C 90 % 1014,4 hPa 0,0 l/m 0 min 0 min 0 W/m 16,1 km/h (3 Bft) 93,62 %
21.05.2023 23:18 19,0 C 18,3 C 14,4 C 90 % 1014,5 hPa 0,0 l/m 0 min 0 min 0 W/m 16,1 km/h (3 Bft) 95,65 %
21.05.2023 23:20 19,0 C 18,3 C 14,4 C 90 % 1014,5 hPa 0,0 l/m 0 min 0 min 0 W/m 6,4 km/h (2 Bft) 100,00 %
21.05.2023 23:22 19,1 C 18,3 C 14,4 C 90 % 1014,5 hPa 0,0 l/m 0 min 0 min 0 W/m 3,2 km/h (1 Bft) 100,00 %
21.05.2023 23:24 19,1 C 18,3 C 14,4 C 90 % 1014,6 hPa 0,0 l/m 0 min 0 min 0 W/m 6,4 km/h (2 Bft) 100,00 %
21.05.2023 23:26 19,1 C 18,3 C 14,4 C 90 % 1014,5 hPa 0,0 l/m 0 min 0 min 0 W/m 6,4 km/h (2 Bft) 100,00 %
21.05.2023 23:28 19,1 C 18,3 C 14,4 C 91 % 1014,5 hPa 0,0 l/m 0 min 0 min 0 W/m 3,2 km/h (1 Bft) 97,87 %
21.05.2023 23:30 19,1 C 18,3 C 14,4 C 91 % 1014,6 hPa 0,0 l/m 0 min 0 min 0 W/m 3,2 km/h (1 Bft) 97,83 %
21.05.2023 23:32 19,1 C 18,3 C 14,4 C 91 % 1014,6 hPa 0,0 l/m 0 min 0 min 0 W/m 3,2 km/h (1 Bft) 100,00 %
21.05.2023 23:34 19,1 C 18,3 C 14,4 C 91 % 1014,6 hPa 0,0 l/m 0 min 0 min 0 W/m 3,2 km/h (1 Bft) 100,00 %
21.05.2023 23:36 19,1 C 18,3 C 14,4 C 91 % 1014,6 hPa 0,0 l/m 0 min 0 min 0 W/m 6,4 km/h (2 Bft) 97,87 %
21.05.2023 23:38 19,0 C 17,8 C 14,4 C 91 % 1014,6 hPa 0,0 l/m 0 min 0 min 0 W/m 9,7 km/h (2 Bft) 95,74 %
21.05.2023 23:40 19,0 C 17,8 C 14,4 C 91 % 1014,5 hPa 0,0 l/m 0 min 0 min 0 W/m 6,4 km/h (2 Bft) 97,87 %
21.05.2023 23:42 19,0 C 17,8 C 14,4 C 91 % 1014,6 hPa 0,0 l/m 0 min 0 min 0 W/m 6,4 km/h (2 Bft) 97,83 %
21.05.2023 23:44 19,0 C 17,8 C 14,4 C 91 % 1014,5 hPa 0,0 l/m 0 min 0 min 0 W/m 6,4 km/h (2 Bft) 97,87 %
21.05.2023 23:46 19,0 C 17,8 C 14,4 C 91 % 1014,5 hPa 0,0 l/m 0 min 0 min 0 W/m 16,1 km/h (3 Bft) 97,87 %
21.05.2023 23:48 18,9 C 17,8 C 13,9 C 92 % 1014,5 hPa 0,0 l/m 0 min 0 min 0 W/m 12,9 km/h (3 Bft) 97,87 %
21.05.2023 23:50 18,9 C 17,8 C 13,9 C 92 % 1014,5 hPa 0,0 l/m 0 min 0 min 0 W/m 12,9 km/h (3 Bft) 97,87 %
21.05.2023 23:52 18,9 C 17,8 C 13,9 C 92 % 1014,5 hPa 0,0 l/m 0 min 0 min 0 W/m 6,4 km/h (2 Bft) 97,87 %
21.05.2023 23:54 18,9 C 17,8 C 13,9 C 92 % 1014,5 hPa 0,0 l/m 0 min 0 min 0 W/m 6,4 km/h (2 Bft) 97,87 %
21.05.2023 23:56 18,9 C 17,8 C 13,9 C 92 % 1014,5 hPa 0,0 l/m 0 min 0 min 0 W/m 9,7 km/h (2 Bft) 97,87 %
21.05.2023 23:58 18,9 C 17,8 C 13,9 C 92 % 1014,5 hPa 0,0 l/m 0 min 0 min 0 W/m 6,4 km/h (2 Bft) 97,87 %
_ Min-Zeit 05:58 05:48 05:46 16:36 18:46 - - - - 02:30 06:22
Minimum _ 12,7 C 11,7 C 8,3 C 61 % 1014,1 hPa - - - - 0,0 km/h (0 Bft) 47,37 %
_ Max-Zeit 16:40 15:10 13:46 23:48 00:00 21:44 12:07 21:34 13:18 08:06 00:40
Maximum _ 26,1 C 31,1 C 22,8 C 92 % 1019,0 hPa 0,2 l/m 3 min 2 min 964 W/m 22,5 km/h
O-SO (4 Bft)
100,00 %
Durchschnitt _ 18,8 C 19,8 C 14,6 C 78 % 1016,0 hPa #0,6 l/m #10:54 h #22 min. 402 W/m 8,8 km/h (2 Bft) 97,21 %
© 2023 W. Hausmann